Wetterdaten: Donnerstag, 08.06.2023
Datum Zeit Temp. 2m Temp +5 cm Feuchte A. Luftdruck Regen Wind Richtung Richtung Sonnenschein UV Solar Taupunkt Windchill Windben
08.06.2023 00:00 14,2 C 12,2 C 89 % 1019,2 hPa 0,0 l/m 0,9 km/h (0 Bft) N 5 0 min 0,0 UV-I 0 W/m 12,4 C 14,2 C 3,2 km/h (1 Bft)
08.06.2023 00:03 14,3 C 12,2 C 90 % 1019,2 hPa 0,0 l/m 1,2 km/h (1 Bft) N 5 0 min 0,0 UV-I 0 W/m 12,7 C 14,3 C 3,2 km/h (1 Bft)
08.06.2023 00:06 14,3 C 12,2 C 89 % 1019,1 hPa 0,0 l/m 1,4 km/h (1 Bft) N 5 0 min 0,0 UV-I 0 W/m 12,5 C 14,3 C 3,2 km/h (1 Bft)
08.06.2023 00:09 14,3 C 12,2 C 89 % 1019,1 hPa 0,0 l/m 2,1 km/h (1 Bft) N 5 0 min 0,0 UV-I 0 W/m 12,5 C 14,3 C 3,2 km/h (1 Bft)
08.06.2023 00:12 14,3 C 12,2 C 89 % 1019,1 hPa 0,0 l/m 2,6 km/h (1 Bft) N 5 0 min 0,0 UV-I 0 W/m 12,5 C 14,3 C 4,8 km/h (1 Bft)
08.06.2023 00:15 14,3 C 12,2 C 89 % 1019,1 hPa 0,0 l/m 1,2 km/h (1 Bft) N 5 0 min 0,0 UV-I 0 W/m 12,5 C 14,3 C 4,8 km/h (1 Bft)
08.06.2023 00:18 14,2 C 12,8 C 89 % 1019,1 hPa 0,0 l/m 0,5 km/h (0 Bft) N 5 0 min 0,0 UV-I 0 W/m 12,4 C 14,2 C 1,6 km/h (1 Bft)
08.06.2023 00:21 14,2 C 12,8 C 89 % 1019,1 hPa 0,0 l/m 1,3 km/h (1 Bft) N 5 0 min 0,0 UV-I 0 W/m 12,4 C 14,2 C 3,2 km/h (1 Bft)
08.06.2023 00:24 14,2 C 12,8 C 89 % 1019,1 hPa 0,0 l/m 1,6 km/h (1 Bft) N 5 0 min 0,0 UV-I 0 W/m 12,4 C 14,2 C 3,2 km/h (1 Bft)
08.06.2023 00:27 14,2 C 12,8 C 89 % 1019,1 hPa 0,0 l/m 0,2 km/h (0 Bft) N 5 0 min 0,0 UV-I 0 W/m 12,4 C 14,2 C 1,6 km/h (1 Bft)
08.06.2023 00:30 14,1 C 12,2 C 89 % 1019,0 hPa 0,0 l/m 1,4 km/h (1 Bft) N 5 0 min 0,0 UV-I 0 W/m 12,3 C 14,1 C 3,2 km/h (1 Bft)
08.06.2023 00:33 14,1 C 12,8 C 89 % 1019,0 hPa 0,0 l/m 2,2 km/h (1 Bft) N 5 0 min 0,0 UV-I 0 W/m 12,3 C 14,1 C 3,2 km/h (1 Bft)
08.06.2023 00:36 14,1 C 12,2 C 89 % 1019,0 hPa 0,0 l/m 2,0 km/h (1 Bft) N 5 0 min 0,0 UV-I 0 W/m 12,3 C 14,1 C 4,8 km/h (1 Bft)
08.06.2023 00:39 14,1 C 12,2 C 89 % 1019,0 hPa 0,0 l/m 3,6 km/h (1 Bft) N 5 0 min 0,0 UV-I 0 W/m 12,3 C 14,1 C 4,8 km/h (1 Bft)
08.06.2023 00:42 14,1 C 11,7 C 89 % 1018,9 hPa 0,0 l/m 4,1 km/h (1 Bft) N 5 0 min 0,0 UV-I 0 W/m 12,3 C 14,1 C 6,4 km/h (2 Bft)
08.06.2023 00:45 14,1 C 11,7 C 89 % 1018,9 hPa 0,0 l/m 4,0 km/h (1 Bft) N 5 0 min 0,0 UV-I 0 W/m 12,3 C 14,1 C 6,4 km/h (2 Bft)
08.06.2023 00:48 13,9 C 11,1 C 89 % 1018,9 hPa 0,0 l/m 3,8 km/h (1 Bft) N 5 0 min 0,0 UV-I 0 W/m 12,1 C 13,9 C 6,4 km/h (2 Bft)
08.06.2023 00:51 13,8 C 11,1 C 89 % 1019,0 hPa 0,0 l/m 3,2 km/h (1 Bft) N 5 0 min 0,0 UV-I 0 W/m 12,0 C 13,8 C 4,8 km/h (1 Bft)
08.06.2023 00:54 13,7 C 11,1 C 89 % 1019,0 hPa 0,0 l/m 1,2 km/h (1 Bft) N 5 0 min 0,0 UV-I 0 W/m 11,9 C 13,7 C 3,2 km/h (1 Bft)
08.06.2023 00:57 13,4 C 11,1 C 89 % 1018,8 hPa 0,0 l/m 0,0 km/h (0 Bft) N 5 0 min 0,0 UV-I 0 W/m 11,6 C 13,4 C 0,0 km/h (0 Bft)
08.06.2023 01:00 13,4 C 11,1 C 90 % 1018,8 hPa 0,0 l/m 0,0 km/h (0 Bft) N 5 0 min 0,0 UV-I 0 W/m 11,8 C 13,4 C 0,0 km/h (0 Bft)
08.06.2023 01:03 13,6 C 11,1 C 90 % 1018,8 hPa 0,0 l/m 0,0 km/h (0 Bft) N 5 0 min 0,0 UV-I 0 W/m 12,0 C 13,6 C 1,6 km/h (1 Bft)
08.06.2023 01:06 13,6 C 11,1 C 90 % 1018,7 hPa 0,0 l/m 0,8 km/h (0 Bft) N 5 0 min 0,0 UV-I 0 W/m 12,0 C 13,6 C 1,6 km/h (1 Bft)
08.06.2023 01:09 13,6 C 10,6 C 90 % 1018,7 hPa 0,0 l/m 1,6 km/h (1 Bft) N 5 0 min 0,0 UV-I 0 W/m 12,0 C 13,6 C 3,2 km/h (1 Bft)
08.06.2023 01:12 13,4 C 10,6 C 90 % 1018,6 hPa 0,0 l/m 3,0 km/h (1 Bft) N 5 0 min 0,0 UV-I 0 W/m 11,8 C 13,4 C 4,8 km/h (1 Bft)
08.06.2023 01:15 13,4 C 10,6 C 90 % 1018,7 hPa 0,0 l/m 2,7 km/h (1 Bft) N 5 0 min 0,0 UV-I 0 W/m 11,8 C 13,4 C 4,8 km/h (1 Bft)
08.06.2023 01:18 13,4 C 10,6 C 90 % 1018,7 hPa 0,0 l/m 2,1 km/h (1 Bft) N 5 0 min 0,0 UV-I 0 W/m 11,8 C 13,4 C 3,2 km/h (1 Bft)
08.06.2023 01:21 13,4 C 10,6 C 91 % 1018,5 hPa 0,0 l/m 2,5 km/h (1 Bft) N 5 0 min 0,0 UV-I 0 W/m 12,0 C 13,4 C 3,2 km/h (1 Bft)
08.06.2023 01:24 13,5 C 10,6 C 91 % 1018,6 hPa 0,0 l/m 1,9 km/h (1 Bft) N 5 0 min 0,0 UV-I 0 W/m 12,1 C 13,5 C 3,2 km/h (1 Bft)
08.06.2023 01:27 13,3 C 10,0 C 90 % 1018,7 hPa 0,0 l/m 1,1 km/h (1 Bft) N 5 0 min 0,0 UV-I 0 W/m 11,7 C 13,3 C 3,2 km/h (1 Bft)
08.06.2023 01:30 12,8 C 10,0 C 90 % 1018,7 hPa 0,0 l/m 1,1 km/h (1 Bft) N 5 0 min 0,0 UV-I 0 W/m 11,2 C 12,8 C 3,2 km/h (1 Bft)
08.06.2023 01:33 12,7 C 10,6 C 90 % 1018,6 hPa 0,0 l/m 0,0 km/h (0 Bft) N 5 0 min 0,0 UV-I 0 W/m 11,1 C 12,7 C 0,0 km/h (0 Bft)
08.06.2023 01:36 12,7 C 10,0 C 91 % 1018,6 hPa 0,0 l/m 0,0 km/h (0 Bft) N 5 0 min 0,0 UV-I 0 W/m 11,3 C 12,7 C 0,0 km/h (0 Bft)
08.06.2023 01:39 12,7 C 10,6 C 91 % 1018,6 hPa 0,0 l/m 0,0 km/h (0 Bft) N 5 0 min 0,0 UV-I 0 W/m 11,3 C 12,7 C 0,0 km/h (0 Bft)
08.06.2023 01:42 12,8 C 10,6 C 91 % 1018,6 hPa 0,0 l/m 0,0 km/h (0 Bft) N 5 0 min 0,0 UV-I 0 W/m 11,4 C 12,8 C 1,6 km/h (1 Bft)
08.06.2023 01:45 12,6 C 10,0 C 91 % 1018,6 hPa 0,0 l/m 0,6 km/h (0 Bft) N 5 0 min 0,0 UV-I 0 W/m 11,2 C 12,6 C 1,6 km/h (1 Bft)
08.06.2023 01:48 12,7 C 10,6 C 91 % 1018,5 hPa 0,0 l/m 1,0 km/h (0 Bft) N 5 0 min 0,0 UV-I 0 W/m 11,3 C 12,7 C 1,6 km/h (1 Bft)
08.06.2023 01:51 12,8 C 10,6 C 91 % 1018,5 hPa 0,0 l/m 0,5 km/h (0 Bft) N 5 0 min 0,0 UV-I 0 W/m 11,4 C 12,8 C 1,6 km/h (1 Bft)
08.06.2023 01:54 12,6 C 10,0 C 91 % 1018,4 hPa 0,0 l/m 0,0 km/h (0 Bft) N 5 0 min 0,0 UV-I 0 W/m 11,2 C 12,6 C 0,0 km/h (0 Bft)
08.06.2023 01:57 12,4 C 9,4 C 91 % 1018,5 hPa 0,0 l/m 0,0 km/h (0 Bft) N 5 0 min 0,0 UV-I 0 W/m 11,0 C 12,4 C 0,0 km/h (0 Bft)
08.06.2023 02:00 12,4 C 9,4 C 91 % 1018,4 hPa 0,0 l/m 0,0 km/h (0 Bft) N 5 0 min 0,0 UV-I 0 W/m 11,0 C 12,4 C 0,0 km/h (0 Bft)
08.06.2023 02:03 12,4 C 9,4 C 92 % 1018,4 hPa 0,0 l/m 0,0 km/h (0 Bft) N 5 0 min 0,0 UV-I 0 W/m 11,1 C 12,4 C 1,6 km/h (1 Bft)
08.06.2023 02:06 12,3 C 9,4 C 91 % 1018,5 hPa 0,0 l/m 0,4 km/h (0 Bft) N 5 0 min 0,0 UV-I 0 W/m 10,9 C 12,3 C 1,6 km/h (1 Bft)
08.06.2023 02:09 12,0 C 9,4 C 91 % 1018,3 hPa 0,0 l/m 1,3 km/h (1 Bft) N 5 0 min 0,0 UV-I 0 W/m 10,6 C 12,0 C 3,2 km/h (1 Bft)
08.06.2023 02:12 11,9 C 9,4 C 91 % 1018,4 hPa 0,0 l/m 0,6 km/h (0 Bft) N 5 0 min 0,0 UV-I 0 W/m 10,5 C 11,9 C 1,6 km/h (1 Bft)
08.06.2023 02:15 11,9 C 9,4 C 91 % 1018,3 hPa 0,0 l/m 0,6 km/h (0 Bft) N 5 0 min 0,0 UV-I 0 W/m 10,5 C 11,9 C 1,6 km/h (1 Bft)
08.06.2023 02:18 11,8 C 9,4 C 91 % 1018,3 hPa 0,0 l/m 0,0 km/h (0 Bft) N 5 0 min 0,0 UV-I 0 W/m 10,4 C 11,8 C 0,0 km/h (0 Bft)
08.06.2023 02:21 11,8 C 9,4 C 92 % 1018,3 hPa 0,0 l/m 0,0 km/h (0 Bft) N 5 0 min 0,0 UV-I 0 W/m 10,5 C 11,8 C 0,0 km/h (0 Bft)
08.06.2023 02:24 11,5 C 8,9 C 91 % 1018,4 hPa 0,0 l/m 0,0 km/h (0 Bft) N 5 0 min 0,0 UV-I 0 W/m 10,1 C 11,5 C 0,0 km/h (0 Bft)
08.06.2023 02:27 11,6 C 8,9 C 92 % 1018,3 hPa 0,0 l/m 0,4 km/h (0 Bft) N 5 0 min 0,0 UV-I 0 W/m 10,3 C 11,6 C 1,6 km/h (1 Bft)
08.06.2023 02:30 11,7 C 8,9 C 92 % 1018,2 hPa 0,0 l/m 0,0 km/h (0 Bft) N 5 0 min 0,0 UV-I 0 W/m 10,4 C 11,7 C 0,0 km/h (0 Bft)
08.06.2023 02:33 11,9 C 9,4 C 92 % 1018,3 hPa 0,0 l/m 1,3 km/h (1 Bft) N 5 0 min 0,0 UV-I 0 W/m 10,6 C 11,9 C 3,2 km/h (1 Bft)
08.06.2023 02:36 12,1 C 8,9 C 92 % 1018,3 hPa 0,0 l/m 1,5 km/h (1 Bft) N 5 0 min 0,0 UV-I 0 W/m 10,8 C 12,1 C 3,2 km/h (1 Bft)
08.06.2023 02:39 11,8 C 9,4 C 91 % 1018,2 hPa 0,0 l/m 0,7 km/h (0 Bft) N 5 0 min 0,0 UV-I 0 W/m 10,4 C 11,8 C 1,6 km/h (1 Bft)
08.06.2023 02:42 11,4 C 9,4 C 91 % 1018,1 hPa 0,0 l/m 0,0 km/h (0 Bft) N 5 0 min 0,0 UV-I 0 W/m 10,0 C 11,4 C 1,6 km/h (1 Bft)
08.06.2023 02:45 11,3 C 8,9 C 92 % 1018,2 hPa 0,0 l/m 0,0 km/h (0 Bft) N 5 0 min 0,0 UV-I 0 W/m 10,0 C 11,3 C 0,0 km/h (0 Bft)
08.06.2023 02:48 11,2 C 8,9 C 92 % 1018,2 hPa 0,0 l/m 0,0 km/h (0 Bft) N 5 0 min 0,0 UV-I 0 W/m 9,9 C 11,2 C 0,0 km/h (0 Bft)
08.06.2023 02:51 11,2 C 8,3 C 92 % 1018,2 hPa 0,0 l/m 0,1 km/h (0 Bft) N 5 0 min 0,0 UV-I 0 W/m 9,9 C 11,2 C 1,6 km/h (1 Bft)
08.06.2023 02:54 11,3 C 8,9 C 92 % 1018,1 hPa 0,0 l/m 1,5 km/h (1 Bft) N 5 0 min 0,0 UV-I 0 W/m 10,0 C 11,3 C 3,2 km/h (1 Bft)
08.06.2023 02:57 11,7 C 8,9 C 93 % 1018,0 hPa 0,0 l/m 3,1 km/h (1 Bft) N 5 0 min 0,0 UV-I 0 W/m 10,6 C 11,7 C 4,8 km/h (1 Bft)
08.06.2023 03:00 11,8 C 9,4 C 92 % 1018,0 hPa 0,0 l/m 2,3 km/h (1 Bft) N 5 0 min 0,0 UV-I 0 W/m 10,5 C 11,8 C 4,8 km/h (1 Bft)
08.06.2023 03:03 11,7 C 8,9 C 92 % 1018,0 hPa 0,0 l/m 2,6 km/h (1 Bft) N 5 0 min 0,0 UV-I 0 W/m 10,4 C 11,7 C 3,2 km/h (1 Bft)
08.06.2023 03:06 11,1 C 8,9 C 91 % 1018,0 hPa 0,0 l/m 0,8 km/h (0 Bft) N 5 0 min 0,0 UV-I 0 W/m 9,7 C 11,1 C 3,2 km/h (1 Bft)
08.06.2023 03:09 11,2 C 8,9 C 92 % 1017,9 hPa 0,0 l/m 0,6 km/h (0 Bft) N 5 0 min 0,0 UV-I 0 W/m 9,9 C 11,2 C 1,6 km/h (1 Bft)
08.06.2023 03:12 11,3 C 8,9 C 92 % 1017,9 hPa 0,0 l/m 0,0 km/h (0 Bft) N 5 0 min 0,0 UV-I 0 W/m 10,0 C 11,3 C 0,0 km/h (0 Bft)
08.06.2023 03:15 11,1 C 8,9 C 92 % 1017,8 hPa 0,0 l/m 0,0 km/h (0 Bft) N 5 0 min 0,0 UV-I 0 W/m 9,8 C 11,1 C 0,0 km/h (0 Bft)
08.06.2023 03:18 11,2 C 8,9 C 92 % 1017,8 hPa 0,0 l/m 0,0 km/h (0 Bft) N 5 0 min 0,0 UV-I 0 W/m 9,9 C 11,2 C 0,0 km/h (0 Bft)
08.06.2023 03:21 11,1 C 8,9 C 92 % 1017,8 hPa 0,0 l/m 0,2 km/h (0 Bft) N 5 0 min 0,0 UV-I 0 W/m 9,8 C 11,1 C 1,6 km/h (1 Bft)
08.06.2023 03:24 10,5 C 8,3 C 91 % 1017,7 hPa 0,0 l/m 0,2 km/h (0 Bft) N 5 0 min 0,0 UV-I 0 W/m 9,1 C 10,5 C 1,6 km/h (1 Bft)
08.06.2023 03:27 10,6 C 8,9 C 92 % 1017,8 hPa 0,0 l/m 0,2 km/h (0 Bft) N 5 0 min 0,0 UV-I 0 W/m 9,4 C 10,6 C 1,6 km/h (1 Bft)
08.06.2023 03:30 10,6 C 8,3 C 92 % 1017,7 hPa 0,0 l/m 1,6 km/h (1 Bft) N 9 0 min 0,0 UV-I 0 W/m 9,4 C 10,6 C 4,8 km/h (1 Bft)
08.06.2023 03:33 10,6 C 8,3 C 92 % 1017,8 hPa 0,0 l/m 2,5 km/h (1 Bft) N 9 0 min 0,0 UV-I 0 W/m 9,4 C 10,6 C 3,2 km/h (1 Bft)
08.06.2023 03:36 10,9 C 8,3 C 93 % 1017,8 hPa 0,0 l/m 4,6 km/h (1 Bft) N 5 0 min 0,0 UV-I 0 W/m 9,8 C 10,9 C 6,4 km/h (2 Bft)
08.06.2023 03:39 10,4 C 8,3 C 92 % 1017,7 hPa 0,0 l/m 1,2 km/h (1 Bft) N 5 0 min 0,0 UV-I 0 W/m 9,2 C 10,4 C 4,8 km/h (1 Bft)
08.06.2023 03:42 10,1 C 8,3 C 92 % 1017,8 hPa 0,0 l/m 0,8 km/h (0 Bft) N 5 0 min 0,0 UV-I 0 W/m 8,9 C 10,1 C 1,6 km/h (1 Bft)
08.06.2023 03:45 10,2 C 8,3 C 92 % 1017,8 hPa 0,0 l/m 0,6 km/h (0 Bft) N 5 0 min 0,0 UV-I 0 W/m 9,0 C 10,2 C 3,2 km/h (1 Bft)
08.06.2023 03:48 10,2 C 8,3 C 92 % 1017,8 hPa 0,0 l/m 0,2 km/h (0 Bft) N 5 0 min 0,0 UV-I 0 W/m 9,0 C 10,2 C 1,6 km/h (1 Bft)
08.06.2023 03:51 10,4 C 8,3 C 93 % 1017,8 hPa 0,0 l/m 2,1 km/h (1 Bft) N 5 0 min 0,0 UV-I 0 W/m 9,3 C 10,4 C 3,2 km/h (1 Bft)
08.06.2023 03:54 10,8 C 8,9 C 93 % 1017,7 hPa 0,0 l/m 3,0 km/h (1 Bft) N 5 0 min 0,0 UV-I 0 W/m 9,7 C 10,8 C 4,8 km/h (1 Bft)
08.06.2023 03:57 10,7 C 8,3 C 93 % 1017,7 hPa 0,0 l/m 2,2 km/h (1 Bft) N 5 0 min 0,0 UV-I 0 W/m 9,6 C 10,7 C 4,8 km/h (1 Bft)
08.06.2023 04:00 10,6 C 8,3 C 92 % 1017,6 hPa 0,0 l/m 1,0 km/h (0 Bft) N 5 0 min 0,0 UV-I 0 W/m 9,4 C 10,6 C 3,2 km/h (1 Bft)
08.06.2023 04:03 11,0 C 8,9 C 93 % 1017,6 hPa 0,0 l/m 1,5 km/h (1 Bft) N 5 0 min 0,0 UV-I 0 W/m 9,9 C 11,0 C 3,2 km/h (1 Bft)
08.06.2023 04:06 10,7 C 8,9 C 92 % 1017,6 hPa 0,0 l/m 0,0 km/h (0 Bft) N 5 0 min 0,0 UV-I 0 W/m 9,5 C 10,7 C 1,6 km/h (1 Bft)
08.06.2023 04:09 11,0 C 8,9 C 93 % 1017,6 hPa 0,0 l/m 1,0 km/h (0 Bft) N 5 0 min 0,0 UV-I 0 W/m 9,9 C 11,0 C 3,2 km/h (1 Bft)
08.06.2023 04:12 10,9 C 8,9 C 93 % 1017,6 hPa 0,0 l/m 1,6 km/h (1 Bft) N 5 0 min 0,0 UV-I 0 W/m 9,8 C 10,9 C 3,2 km/h (1 Bft)
08.06.2023 04:15 11,2 C 8,9 C 93 % 1017,5 hPa 0,0 l/m 2,4 km/h (1 Bft) N 360 0 min 0,0 UV-I 0 W/m 10,1 C 11,2 C 4,8 km/h (1 Bft)
08.06.2023 04:18 11,8 C 10,0 C 93 % 1017,6 hPa 0,0 l/m 3,2 km/h (1 Bft) N 360 0 min 0,0 UV-I 0 W/m 10,7 C 11,8 C 4,8 km/h (1 Bft)
08.06.2023 04:21 11,7 C 9,4 C 93 % 1017,5 hPa 0,0 l/m 2,6 km/h (1 Bft) N 355 0 min 0,0 UV-I 0 W/m 10,6 C 11,7 C 4,8 km/h (1 Bft)
08.06.2023 04:24 11,4 C 9,4 C 93 % 1017,5 hPa 0,0 l/m 1,9 km/h (1 Bft) N 355 0 min 0,0 UV-I 0 W/m 10,3 C 11,4 C 3,2 km/h (1 Bft)
08.06.2023 04:27 11,6 C 9,4 C 93 % 1017,5 hPa 0,0 l/m 2,4 km/h (1 Bft) N 355 0 min 0,0 UV-I 0 W/m 10,5 C 11,6 C 3,2 km/h (1 Bft)
08.06.2023 04:30 11,8 C 8,9 C 93 % 1017,5 hPa 0,0 l/m 0,9 km/h (0 Bft) N 355 0 min 0,0 UV-I 0 W/m 10,7 C 11,8 C 3,2 km/h (1 Bft)
08.06.2023 04:33 12,1 C 8,9 C 93 % 1017,4 hPa 0,0 l/m 1,2 km/h (1 Bft) N 355 0 min 0,0 UV-I 0 W/m 11,0 C 12,1 C 3,2 km/h (1 Bft)
08.06.2023 04:36 12,1 C 9,4 C 93 % 1017,4 hPa 0,0 l/m 3,2 km/h (1 Bft) N 355 0 min 0,0 UV-I 0 W/m 11,0 C 12,1 C 4,8 km/h (1 Bft)
08.06.2023 04:39 12,1 C 9,4 C 93 % 1017,5 hPa 0,0 l/m 2,8 km/h (1 Bft) N 355 0 min 0,0 UV-I 0 W/m 11,0 C 12,1 C 4,8 km/h (1 Bft)
08.06.2023 04:42 12,0 C 8,9 C 93 % 1017,5 hPa 0,0 l/m 0,9 km/h (0 Bft) N 355 0 min 0,0 UV-I 0 W/m 10,9 C 12,0 C 3,2 km/h (1 Bft)
08.06.2023 04:45 10,7 C 8,9 C 91 % 1017,5 hPa 0,0 l/m 0,5 km/h (0 Bft) N 355 0 min 0,0 UV-I 0 W/m 9,3 C 10,7 C 1,6 km/h (1 Bft)
08.06.2023 04:48 10,2 C 8,3 C 92 % 1017,5 hPa 0,0 l/m 0,1 km/h (0 Bft) N 355 0 min 0,0 UV-I 0 W/m 9,0 C 10,2 C 1,6 km/h (1 Bft)
08.06.2023 04:51 10,3 C 8,3 C 92 % 1017,5 hPa 0,0 l/m 0,0 km/h (0 Bft) N 355 0 min 0,0 UV-I 0 W/m 9,1 C 10,3 C 0,0 km/h (0 Bft)
08.06.2023 04:54 10,6 C 8,9 C 93 % 1017,5 hPa 0,0 l/m 0,8 km/h (0 Bft) N 355 0 min 0,0 UV-I 0 W/m 9,5 C 10,6 C 1,6 km/h (1 Bft)
08.06.2023 04:57 11,1 C 9,4 C 93 % 1017,5 hPa 0,0 l/m 1,6 km/h (1 Bft) N 355 0 min 0,0 UV-I 0 W/m 10,0 C 11,1 C 3,2 km/h (1 Bft)
08.06.2023 05:00 11,3 C 10,0 C 93 % 1017,6 hPa 0,0 l/m 2,7 km/h (1 Bft) N 355 0 min 0,0 UV-I 0 W/m 10,2 C 11,3 C 3,2 km/h (1 Bft)
08.06.2023 05:03 11,6 C 10,0 C 93 % 1017,6 hPa 0,0 l/m 2,1 km/h (1 Bft) N 355 0 min 0,0 UV-I 0 W/m 10,5 C 11,6 C 3,2 km/h (1 Bft)
08.06.2023 05:06 11,7 C 10,0 C 93 % 1017,6 hPa 0,0 l/m 2,1 km/h (1 Bft) N 355 0 min 0,0 UV-I 0 W/m 10,6 C 11,7 C 3,2 km/h (1 Bft)
08.06.2023 05:09 11,2 C 9,4 C 93 % 1017,6 hPa 0,0 l/m 1,0 km/h (0 Bft) N 355 0 min 0,0 UV-I 0 W/m 10,1 C 11,2 C 3,2 km/h (1 Bft)
08.06.2023 05:12 10,8 C 9,4 C 92 % 1017,6 hPa 0,0 l/m 0,0 km/h (0 Bft) N 355 0 min 0,0 UV-I 0 W/m 9,6 C 10,8 C 0,0 km/h (0 Bft)
08.06.2023 05:15 10,9 C 9,4 C 93 % 1017,6 hPa 0,0 l/m 0,0 km/h (0 Bft) N 355 0 min 0,0 UV-I 0 W/m 9,8 C 10,9 C 1,6 km/h (1 Bft)
08.06.2023 05:18 10,7 C 9,4 C 93 % 1017,6 hPa 0,0 l/m 0,8 km/h (0 Bft) N 355 0 min 0,0 UV-I 0 W/m 9,6 C 10,7 C 3,2 km/h (1 Bft)
08.06.2023 05:21 10,7 C 8,9 C 93 % 1017,6 hPa 0,0 l/m 0,7 km/h (0 Bft) N 355 0 min 0,0 UV-I 0 W/m 9,6 C 10,7 C 1,6 km/h (1 Bft)
08.06.2023 05:24 10,4 C 9,4 C 93 % 1017,6 hPa 0,0 l/m 0,0 km/h (0 Bft) N 355 0 min 0,0 UV-I 0 W/m 9,3 C 10,4 C 0,0 km/h (0 Bft)
08.06.2023 05:27 10,6 C 9,4 C 93 % 1017,6 hPa 0,0 l/m 0,0 km/h (0 Bft) N 355 0 min 0,0 UV-I 0 W/m 9,5 C 10,6 C 0,0 km/h (0 Bft)
08.06.2023 05:30 10,6 C 9,4 C 93 % 1017,7 hPa 0,0 l/m 0,5 km/h (0 Bft) N 355 0 min 0,0 UV-I 0 W/m 9,5 C 10,6 C 3,2 km/h (1 Bft)
08.06.2023 05:33 10,9 C 9,4 C 94 % 1017,6 hPa 0,0 l/m 2,6 km/h (1 Bft) N 355 0 min 0,0 UV-I 4 W/m 10,0 C 10,9 C 4,8 km/h (1 Bft)
08.06.2023 05:36 11,7 C 9,4 C 94 % 1017,6 hPa 0,0 l/m 4,0 km/h (1 Bft) N 355 0 min 0,0 UV-I 5 W/m 10,8 C 11,7 C 4,8 km/h (1 Bft)
08.06.2023 05:39 12,1 C 10,0 C 94 % 1017,6 hPa 0,0 l/m 2,9 km/h (1 Bft) N 355 0 min 0,0 UV-I 7 W/m 11,2 C 12,1 C 4,8 km/h (1 Bft)
08.06.2023 05:42 11,8 C 9,4 C 94 % 1017,6 hPa 0,0 l/m 0,9 km/h (0 Bft) N 355 0 min 0,0 UV-I 8 W/m 10,9 C 11,8 C 3,2 km/h (1 Bft)
08.06.2023 05:45 10,8 C 9,4 C 92 % 1017,7 hPa 0,0 l/m 1,8 km/h (1 Bft) N 355 0 min 0,0 UV-I 11 W/m 9,6 C 10,8 C 3,2 km/h (1 Bft)
08.06.2023 05:48 10,5 C 9,4 C 92 % 1017,6 hPa 0,0 l/m 0,9 km/h (0 Bft) N 355 0 min 0,0 UV-I 12 W/m 9,3 C 10,5 C 3,2 km/h (1 Bft)
08.06.2023 05:51 10,9 C 9,4 C 94 % 1017,7 hPa 0,0 l/m 3,3 km/h (1 Bft) N 355 0 min 0,0 UV-I 15 W/m 10,0 C 10,9 C 4,8 km/h (1 Bft)
08.06.2023 05:54 11,6 C 9,4 C 94 % 1017,7 hPa 0,0 l/m 2,9 km/h (1 Bft) N 355 0 min 0,0 UV-I 18 W/m 10,7 C 11,6 C 4,8 km/h (1 Bft)
08.06.2023 05:57 11,9 C 10,0 C 94 % 1017,7 hPa 0,0 l/m 3,9 km/h (1 Bft) N 355 0 min 0,0 UV-I 21 W/m 11,0 C 11,9 C 4,8 km/h (1 Bft)
08.06.2023 06:00 12,1 C 10,6 C 94 % 1017,6 hPa 0,0 l/m 3,8 km/h (1 Bft) N 355 0 min 0,0 UV-I 25 W/m 11,2 C 12,1 C 4,8 km/h (1 Bft)
08.06.2023 06:03 12,2 C 10,6 C 94 % 1017,7 hPa 0,0 l/m 2,2 km/h (1 Bft) N 355 0 min 0,0 UV-I 28 W/m 11,3 C 12,2 C 4,8 km/h (1 Bft)
08.06.2023 06:06 12,2 C 11,1 C 93 % 1017,6 hPa 0,0 l/m 2,7 km/h (1 Bft) N 355 0 min 0,0 UV-I 33 W/m 11,1 C 12,2 C 4,8 km/h (1 Bft)
08.06.2023 06:09 12,1 C 11,1 C 93 % 1017,6 hPa 0,0 l/m 0,9 km/h (0 Bft) N 355 0 min 0,0 UV-I 38 W/m 11,0 C 12,1 C 3,2 km/h (1 Bft)
08.06.2023 06:12 11,3 C 11,1 C 92 % 1017,5 hPa 0,0 l/m 0,4 km/h (0 Bft) N 355 0 min 0,0 UV-I 42 W/m 10,0 C 11,3 C 3,2 km/h (1 Bft)
08.06.2023 06:15 11,2 C 11,1 C 93 % 1017,5 hPa 0,0 l/m 0,3 km/h (0 Bft) N 355 0 min 0,0 UV-I 48 W/m 10,1 C 11,2 C 3,2 km/h (1 Bft)
08.06.2023 06:18 11,6 C 11,1 C 94 % 1017,5 hPa 0,0 l/m 0,8 km/h (0 Bft) N 355 0 min 0,0 UV-I 54 W/m 10,7 C 11,6 C 3,2 km/h (1 Bft)
08.06.2023 06:21 11,8 C 11,7 C 94 % 1017,5 hPa 0,0 l/m 0,0 km/h (0 Bft) N 355 0 min 0,0 UV-I 60 W/m 10,9 C 11,8 C 0,0 km/h (0 Bft)
08.06.2023 06:24 11,8 C 11,7 C 93 % 1017,6 hPa 0,0 l/m 0,0 km/h (0 Bft) N 355 0 min 0,0 UV-I 67 W/m 10,7 C 11,8 C 0,0 km/h (0 Bft)
08.06.2023 06:27 12,0 C 12,2 C 94 % 1017,4 hPa 0,0 l/m 0,0 km/h (0 Bft) N 355 3 min 0,0 UV-I 73 W/m 11,1 C 12,0 C 0,0 km/h (0 Bft)
08.06.2023 06:30 12,2 C 12,2 C 94 % 1017,5 hPa 0,0 l/m 0,0 km/h (0 Bft) N 355 3 min 0,0 UV-I 79 W/m 11,3 C 12,2 C 0,0 km/h (0 Bft)
08.06.2023 06:33 12,4 C 12,2 C 94 % 1017,5 hPa 0,0 l/m 0,0 km/h (0 Bft) N 355 3 min 0,0 UV-I 84 W/m 11,5 C 12,4 C 0,0 km/h (0 Bft)
08.06.2023 06:36 12,6 C 12,8 C 94 % 1017,4 hPa 0,0 l/m 0,0 km/h (0 Bft) N 355 3 min 0,0 UV-I 90 W/m 11,7 C 12,6 C 0,0 km/h (0 Bft)
08.06.2023 06:39 12,7 C 12,8 C 94 % 1017,4 hPa 0,0 l/m 0,0 km/h (0 Bft) N 355 3 min 0,0 UV-I 95 W/m 11,8 C 12,7 C 0,0 km/h (0 Bft)
08.06.2023 06:42 12,8 C 13,3 C 94 % 1017,4 hPa 0,0 l/m 0,0 km/h (0 Bft) N 355 3 min 0,0 UV-I 102 W/m 11,9 C 12,8 C 0,0 km/h (0 Bft)
08.06.2023 06:45 12,9 C 13,3 C 93 % 1017,4 hPa 0,0 l/m 0,0 km/h (0 Bft) N 355 3 min 0,0 UV-I 106 W/m 11,8 C 12,9 C 1,6 km/h (1 Bft)
08.06.2023 06:48 13,2 C 13,3 C 94 % 1017,5 hPa 0,0 l/m 1,4 km/h (1 Bft) N 355 3 min 0,0 UV-I 110 W/m 12,3 C 13,2 C 3,2 km/h (1 Bft)
08.06.2023 06:51 13,2 C 13,3 C 93 % 1017,5 hPa 0,0 l/m 1,9 km/h (1 Bft) N 355 3 min 0,0 UV-I 113 W/m 12,1 C 13,2 C 4,8 km/h (1 Bft)
08.06.2023 06:54 13,0 C 13,3 C 93 % 1017,5 hPa 0,0 l/m 1,1 km/h (1 Bft) N 355 3 min 0,0 UV-I 115 W/m 11,9 C 13,0 C 3,2 km/h (1 Bft)
08.06.2023 06:57 13,1 C 13,3 C 93 % 1017,6 hPa 0,0 l/m 1,3 km/h (1 Bft) N 355 3 min 0,0 UV-I 117 W/m 12,0 C 13,1 C 4,8 km/h (1 Bft)
08.06.2023 07:00 13,3 C 13,3 C 93 % 1017,4 hPa 0,0 l/m 2,0 km/h (1 Bft) N 355 0 min 0,0 UV-I 116 W/m 12,2 C 13,3 C 4,8 km/h (1 Bft)
08.06.2023 07:01 13,3 C 13,3 C 93 % 1017,4 hPa 0,0 l/m 1,6 km/h (1 Bft) N 360 0 min 0,0 UV-I 116 W/m 12,2 C 13,3 C 3,2 km/h (1 Bft)
08.06.2023 07:03 13,4 C 13,9 C 93 % 1017,4 hPa 0,0 l/m 0,8 km/h (0 Bft) N 355 0 min 0,0 UV-I 118 W/m 12,3 C 13,4 C 1,6 km/h (1 Bft)
08.06.2023 07:06 13,4 C 13,9 C 93 % 1017,5 hPa 0,0 l/m 0,8 km/h (0 Bft) N 355 0 min 0,2 UV-I 119 W/m 12,3 C 13,4 C 3,2 km/h (1 Bft)
08.06.2023 07:09 13,4 C 14,4 C 93 % 1017,5 hPa 0,0 l/m 1,2 km/h (1 Bft) N 355 0 min 0,5 UV-I 120 W/m 12,3 C 13,4 C 3,2 km/h (1 Bft)
08.06.2023 07:12 13,7 C 14,4 C 93 % 1017,4 hPa 0,0 l/m 2,9 km/h (1 Bft) N 355 0 min 0,5 UV-I 119 W/m 12,6 C 13,7 C 8,0 km/h (2 Bft)
08.06.2023 07:15 13,9 C 14,4 C 93 % 1017,4 hPa 0,0 l/m 3,5 km/h (1 Bft) N 360 0 min 0,5 UV-I 120 W/m 12,8 C 13,9 C 6,4 km/h (2 Bft)
08.06.2023 07:18 14,1 C 14,4 C 93 % 1017,4 hPa 0,0 l/m 3,7 km/h (1 Bft) N 360 0 min 0,5 UV-I 121 W/m 13,0 C 14,1 C 6,4 km/h (2 Bft)
08.06.2023 07:21 14,2 C 15,0 C 92 % 1017,3 hPa 0,0 l/m 3,1 km/h (1 Bft) N 360 0 min 0,6 UV-I 126 W/m 12,9 C 14,2 C 4,8 km/h (1 Bft)
08.06.2023 07:24 14,2 C 15,0 C 92 % 1017,4 hPa 0,0 l/m 3,1 km/h (1 Bft) N 360 0 min 0,6 UV-I 135 W/m 12,9 C 14,2 C 4,8 km/h (1 Bft)
08.06.2023 07:27 14,3 C 15,0 C 92 % 1017,4 hPa 0,0 l/m 1,0 km/h (0 Bft) N 360 0 min 0,6 UV-I 148 W/m 13,0 C 14,3 C 3,2 km/h (1 Bft)
08.06.2023 07:30 14,3 C 15,6 C 91 % 1017,3 hPa 0,0 l/m 1,7 km/h (1 Bft) N 360 3 min 0,7 UV-I 161 W/m 12,8 C 14,3 C 3,2 km/h (1 Bft)
08.06.2023 07:33 14,5 C 15,6 C 91 % 1017,4 hPa 0,0 l/m 4,2 km/h (1 Bft) N 9 3 min 0,7 UV-I 170 W/m 13,0 C 14,5 C 6,4 km/h (2 Bft)
08.06.2023 07:36 14,7 C 15,6 C 91 % 1017,4 hPa 0,0 l/m 4,0 km/h (1 Bft) N 9 3 min 0,7 UV-I 181 W/m 13,2 C 14,7 C 6,4 km/h (2 Bft)
08.06.2023 07:39 14,8 C 15,6 C 90 % 1017,4 hPa 0,0 l/m 4,8 km/h (1 Bft) N-NW 346 3 min 0,8 UV-I 189 W/m 13,2 C 14,8 C 6,4 km/h (2 Bft)
08.06.2023 07:42 14,9 C 16,1 C 90 % 1017,5 hPa 0,0 l/m 4,0 km/h (1 Bft) N-NW 348 3 min 0,8 UV-I 195 W/m 13,3 C 14,9 C 6,4 km/h (2 Bft)
08.06.2023 07:45 14,9 C 16,1 C 90 % 1017,4 hPa 0,0 l/m 4,7 km/h (1 Bft) N 355 3 min 0,8 UV-I 203 W/m 13,3 C 14,9 C 8,0 km/h (2 Bft)
08.06.2023 07:48 15,1 C 16,1 C 89 % 1017,3 hPa 0,0 l/m 3,4 km/h (1 Bft) N 355 3 min 0,9 UV-I 213 W/m 13,3 C 15,1 C 4,8 km/h (1 Bft)
08.06.2023 07:51 15,1 C 15,6 C 88 % 1017,4 hPa 0,0 l/m 5,0 km/h (1 Bft) N-NO 13 3 min 0,9 UV-I 217 W/m 13,1 C 15,1 C 8,0 km/h (2 Bft)
08.06.2023 07:54 15,2 C 16,1 C 88 % 1017,3 hPa 0,0 l/m 4,1 km/h (1 Bft) N 5 3 min 0,9 UV-I 222 W/m 13,2 C 15,2 C 6,4 km/h (2 Bft)
08.06.2023 07:57 15,3 C 16,1 C 88 % 1017,2 hPa 0,0 l/m 4,0 km/h (1 Bft) N 5 3 min 1,0 UV-I 228 W/m 13,3 C 15,3 C 6,4 km/h (2 Bft)
08.06.2023 08:00 15,4 C 16,1 C 87 % 1017,4 hPa 0,0 l/m 4,7 km/h (1 Bft) N 5 3 min 1,0 UV-I 235 W/m 13,2 C 15,4 C 6,4 km/h (2 Bft)
08.06.2023 08:03 15,4 C 16,1 C 87 % 1017,3 hPa 0,0 l/m 3,0 km/h (1 Bft) N 5 3 min 1,1 UV-I 241 W/m 13,2 C 15,4 C 4,8 km/h (1 Bft)
08.06.2023 08:06 15,6 C 16,7 C 86 % 1017,3 hPa 0,0 l/m 4,1 km/h (1 Bft) N 5 3 min 1,1 UV-I 248 W/m 13,3 C 15,6 C 6,4 km/h (2 Bft)
08.06.2023 08:09 15,7 C 16,7 C 86 % 1017,2 hPa 0,0 l/m 4,3 km/h (1 Bft) NO 38 3 min 1,2 UV-I 257 W/m 13,4 C 15,7 C 6,4 km/h (2 Bft)
08.06.2023 08:12 15,9 C 16,7 C 85 % 1017,1 hPa 0,0 l/m 3,6 km/h (1 Bft) N-NO 31 3 min 1,2 UV-I 264 W/m 13,4 C 15,9 C 6,4 km/h (2 Bft)
08.06.2023 08:15 15,9 C 16,7 C 84 % 1017,2 hPa 0,0 l/m 2,8 km/h (1 Bft) N-NO 31 3 min 1,2 UV-I 272 W/m 13,2 C 15,9 C 4,8 km/h (1 Bft)
08.06.2023 08:18 16,0 C 16,7 C 85 % 1017,2 hPa 0,0 l/m 1,9 km/h (1 Bft) N-NO 30 3 min 1,3 UV-I 282 W/m 13,5 C 16,0 C 4,8 km/h (1 Bft)
08.06.2023 08:21 16,1 C 16,7 C 84 % 1017,2 hPa 0,0 l/m 3,7 km/h (1 Bft) N-NO 24 3 min 1,3 UV-I 294 W/m 13,4 C 16,1 C 8,0 km/h (2 Bft)
08.06.2023 08:24 16,2 C 16,7 C 84 % 1017,2 hPa 0,0 l/m 3,8 km/h (1 Bft) N-NO 24 3 min 1,4 UV-I 301 W/m 13,5 C 16,2 C 6,4 km/h (2 Bft)
08.06.2023 08:27 16,3 C 16,7 C 84 % 1017,2 hPa 0,0 l/m 5,3 km/h (1 Bft) N 11 3 min 1,4 UV-I 312 W/m 13,6 C 16,3 C 6,4 km/h (2 Bft)
08.06.2023 08:30 16,4 C 16,7 C 82 % 1017,1 hPa 0,0 l/m 4,5 km/h (1 Bft) NO 54 3 min 1,5 UV-I 322 W/m 13,3 C 16,4 C 8,0 km/h (2 Bft)
08.06.2023 08:33 16,7 C 17,2 C 82 % 1017,2 hPa 0,0 l/m 4,5 km/h (1 Bft) NO 55 3 min 1,5 UV-I 329 W/m 13,6 C 16,7 C 6,4 km/h (2 Bft)
08.06.2023 08:36 16,9 C 17,2 C 80 % 1017,2 hPa 0,0 l/m 5,5 km/h (1 Bft) NO 49 3 min 1,6 UV-I 339 W/m 13,4 C 16,9 C 8,0 km/h (2 Bft)
08.06.2023 08:39 16,9 C 17,2 C 79 % 1017,1 hPa 0,0 l/m 3,6 km/h (1 Bft) NO 53 3 min 1,6 UV-I 346 W/m 13,2 C 16,9 C 6,4 km/h (2 Bft)
08.06.2023 08:42 17,1 C 17,8 C 79 % 1017,2 hPa 0,0 l/m 4,5 km/h (1 Bft) NO 36 3 min 1,7 UV-I 353 W/m 13,4 C 17,1 C 8,0 km/h (2 Bft)
08.06.2023 08:45 17,1 C 17,8 C 78 % 1017,2 hPa 0,0 l/m 6,8 km/h (2 Bft) NO 34 3 min 1,7 UV-I 362 W/m 13,2 C 16,9 C 9,7 km/h (2 Bft)
08.06.2023 08:48 17,2 C 18,3 C 77 % 1017,3 hPa 0,0 l/m 5,2 km/h (1 Bft) NO 48 3 min 1,8 UV-I 371 W/m 13,1 C 17,2 C 8,0 km/h (2 Bft)
08.06.2023 08:51 17,4 C 18,3 C 77 % 1017,2 hPa 0,0 l/m 6,7 km/h (2 Bft) NO 48 3 min 1,8 UV-I 379 W/m 13,3 C 17,3 C 9,7 km/h (2 Bft)
08.06.2023 08:54 17,4 C 18,3 C 77 % 1017,2 hPa 0,0 l/m 7,0 km/h (2 Bft) NO 55 3 min 1,9 UV-I 387 W/m 13,3 C 17,1 C 11,3 km/h (2 Bft)
08.06.2023 08:57 17,4 C 18,3 C 77 % 1017,1 hPa 0,0 l/m 6,0 km/h (2 Bft) NO 35 3 min 1,9 UV-I 394 W/m 13,3 C 17,4 C 9,7 km/h (2 Bft)
08.06.2023 09:00 17,5 C 18,9 C 76 % 1017,2 hPa 0,0 l/m 6,8 km/h (2 Bft) NO 35 3 min 2,0 UV-I 403 W/m 13,2 C 17,3 C 11,3 km/h (2 Bft)
08.06.2023 09:03 17,5 C 18,9 C 75 % 1017,2 hPa 0,0 l/m 7,8 km/h (2 Bft) O-NO 61 3 min 2,0 UV-I 410 W/m 13,0 C 16,8 C 12,9 km/h (3 Bft)
08.06.2023 09:06 17,6 C 19,4 C 76 % 1017,2 hPa 0,0 l/m 6,3 km/h (2 Bft) O-NO 62 3 min 2,1 UV-I 415 W/m 13,3 C 17,6 C 9,7 km/h (2 Bft)
08.06.2023 09:09 17,7 C 19,4 C 76 % 1017,2 hPa 0,0 l/m 6,5 km/h (2 Bft) O-NO 74 3 min 2,1 UV-I 423 W/m 13,4 C 17,7 C 12,9 km/h (3 Bft)
08.06.2023 09:12 17,7 C 18,9 C 76 % 1017,2 hPa 0,0 l/m 7,5 km/h (2 Bft) O-NO 67 3 min 2,2 UV-I 431 W/m 13,4 C 17,2 C 11,3 km/h (2 Bft)
08.06.2023 09:15 17,7 C 19,4 C 76 % 1017,2 hPa 0,0 l/m 6,9 km/h (2 Bft) O-NO 59 3 min 2,2 UV-I 438 W/m 13,4 C 17,5 C 9,7 km/h (2 Bft)
08.06.2023 09:18 17,6 C 19,4 C 76 % 1017,1 hPa 0,0 l/m 6,7 km/h (2 Bft) NO 55 3 min 2,2 UV-I 446 W/m 13,3 C 17,5 C 16,1 km/h (3 Bft)
08.06.2023 09:21 17,8 C 20,0 C 75 % 1017,1 hPa 0,0 l/m 8,2 km/h (2 Bft) O-NO 75 3 min 2,3 UV-I 454 W/m 13,3 C 17,0 C 12,9 km/h (3 Bft)
08.06.2023 09:24 17,9 C 20,0 C 77 % 1017,2 hPa 0,0 l/m 6,6 km/h (2 Bft) NO 55 3 min 2,4 UV-I 462 W/m 13,8 C 17,8 C 11,3 km/h (2 Bft)
08.06.2023 09:27 18,1 C 20,6 C 75 % 1017,1 hPa 0,0 l/m 6,9 km/h (2 Bft) NO 37 3 min 2,4 UV-I 470 W/m 13,6 C 17,9 C 11,3 km/h (2 Bft)
08.06.2023 09:30 18,3 C 20,0 C 75 % 1017,2 hPa 0,0 l/m 7,5 km/h (2 Bft) O-NO 78 3 min 2,5 UV-I 478 W/m 13,8 C 17,8 C 11,3 km/h (2 Bft)
08.06.2023 09:33 18,1 C 20,0 C 75 % 1017,2 hPa 0,0 l/m 7,6 km/h (2 Bft) O-NO 65 3 min 2,5 UV-I 486 W/m 13,6 C 17,5 C 12,9 km/h (3 Bft)
08.06.2023 09:36 18,2 C 20,0 C 74 % 1017,1 hPa 0,0 l/m 7,9 km/h (2 Bft) O-NO 63 3 min 2,6 UV-I 491 W/m 13,5 C 17,5 C 12,9 km/h (3 Bft)
08.06.2023 09:39 18,4 C 20,0 C 75 % 1017,1 hPa 0,0 l/m 6,8 km/h (2 Bft) O 79 3 min 2,6 UV-I 494 W/m 13,9 C 18,2 C 12,9 km/h (3 Bft)
08.06.2023 09:42 18,8 C 20,0 C 74 % 1017,2 hPa 0,0 l/m 6,6 km/h (2 Bft) O 101 3 min 2,7 UV-I 494 W/m 14,1 C 18,7 C 11,3 km/h (2 Bft)
08.06.2023 09:45 18,8 C 20,0 C 72 % 1017,1 hPa 0,0 l/m 6,3 km/h (2 Bft) NO 36 3 min 2,8 UV-I 492 W/m 13,6 C 18,8 C 11,3 km/h (2 Bft)
08.06.2023 09:48 19,0 C 20,6 C 73 % 1017,1 hPa 0,0 l/m 8,0 km/h (2 Bft) N-NO 14 3 min 2,8 UV-I 486 W/m 14,0 C 18,3 C 14,5 km/h (3 Bft)
08.06.2023 09:51 18,9 C 20,0 C 71 % 1017,0 hPa 0,0 l/m 9,6 km/h (2 Bft) NO 49 3 min 2,9 UV-I 483 W/m 13,5 C 17,6 C 14,5 km/h (3 Bft)
08.06.2023 09:54 18,9 C 20,0 C 71 % 1017,0 hPa 0,0 l/m 9,9 km/h (2 Bft) O 80 3 min 3,0 UV-I 479 W/m 13,5 C 17,5 C 16,1 km/h (3 Bft)
08.06.2023 09:57 19,1 C 20,0 C 71 % 1017,0 hPa 0,0 l/m 8,6 km/h (2 Bft) NO 42 3 min 3,0 UV-I 475 W/m 13,7 C 18,2 C 14,5 km/h (3 Bft)
08.06.2023 10:00 19,1 C 20,0 C 70 % 1017,1 hPa 0,0 l/m 8,3 km/h (2 Bft) N-NO 24 3 min 3,1 UV-I 469 W/m 13,5 C 18,3 C 14,5 km/h (3 Bft)
08.06.2023 10:03 19,3 C 20,6 C 72 % 1017,0 hPa 0,0 l/m 5,7 km/h (1 Bft) N-NO 32 3 min 3,1 UV-I 469 W/m 14,1 C 19,3 C 11,3 km/h (2 Bft)
08.06.2023 10:06 19,4 C 20,6 C 69 % 1017,0 hPa 0,0 l/m 10,3 km/h (2 Bft) O-NO 62 3 min 3,2 UV-I 469 W/m 13,6 C 17,9 C 16,1 km/h (3 Bft)
08.06.2023 10:09 19,4 C 20,6 C 69 % 1017,0 hPa 0,0 l/m 7,2 km/h (2 Bft) NO 40 3 min 3,2 UV-I 467 W/m 13,6 C 19,1 C 14,5 km/h (3 Bft)
08.06.2023 10:12 19,4 C 20,6 C 71 % 1017,0 hPa 0,0 l/m 4,9 km/h (1 Bft) O 82 3 min 3,3 UV-I 471 W/m 14,0 C 19,4 C 12,9 km/h (3 Bft)
08.06.2023 10:15 19,6 C 20,6 C 69 % 1016,9 hPa 0,0 l/m 11,1 km/h (2 Bft) NO 44 3 min 3,3 UV-I 478 W/m 13,8 C 17,8 C 16,1 km/h (3 Bft)
08.06.2023 10:18 19,8 C 20,6 C 68 % 1016,9 hPa 0,0 l/m 8,4 km/h (2 Bft) NO 54 3 min 3,4 UV-I 487 W/m 13,7 C 19,0 C 14,5 km/h (3 Bft)
08.06.2023 10:21 19,8 C 20,6 C 68 % 1016,9 hPa 0,0 l/m 7,9 km/h (2 Bft) NO 49 3 min 3,5 UV-I 504 W/m 13,7 C 19,2 C 14,5 km/h (3 Bft)
08.06.2023 10:24 20,1 C 20,6 C 66 % 1016,9 hPa 0,0 l/m 9,0 km/h (2 Bft) N-NO 26 3 min 3,5 UV-I 519 W/m 13,5 C 19,1 C 14,5 km/h (3 Bft)
08.06.2023 10:27 20,1 C 21,1 C 67 % 1016,9 hPa 0,0 l/m 9,2 km/h (2 Bft) NO 39 3 min 3,6 UV-I 533 W/m 13,8 C 19,0 C 16,1 km/h (3 Bft)
08.06.2023 10:30 20,2 C 21,1 C 67 % 1016,9 hPa 0,0 l/m 10,0 km/h (2 Bft) N-NO 31 3 min 3,6 UV-I 555 W/m 13,9 C 18,9 C 16,1 km/h (3 Bft)
08.06.2023 10:33 20,1 C 21,7 C 67 % 1016,9 hPa 0,0 l/m 10,9 km/h (2 Bft) NO 53 3 min 3,7 UV-I 576 W/m 13,8 C 18,5 C 17,7 km/h (3 Bft)
08.06.2023 10:36 20,2 C 22,2 C 68 % 1016,9 hPa 0,0 l/m 10,3 km/h (2 Bft) N-NO 27 3 min 3,7 UV-I 597 W/m 14,1 C 18,8 C 14,5 km/h (3 Bft)
08.06.2023 10:39 20,4 C 22,2 C 67 % 1016,9 hPa 0,0 l/m 12,6 km/h (3 Bft) N-NO 20 3 min 3,8 UV-I 619 W/m 14,1 C 18,3 C 19,3 km/h (3 Bft)
08.06.2023 10:42 20,3 C 22,8 C 68 % 1016,9 hPa 0,0 l/m 10,6 km/h (2 Bft) NO 40 3 min 3,7 UV-I 629 W/m 14,2 C 18,8 C 17,7 km/h (3 Bft)
08.06.2023 10:45 20,4 C 22,8 C 66 % 1016,9 hPa 0,0 l/m 11,2 km/h (2 Bft) N-NO 23 3 min 3,8 UV-I 654 W/m 13,8 C 18,7 C 16,1 km/h (3 Bft)
08.06.2023 10:48 20,9 C 23,3 C 68 % 1016,9 hPa 0,0 l/m 6,0 km/h (2 Bft) N-NO 28 3 min 4,0 UV-I 675 W/m 14,8 C 20,9 C 9,7 km/h (2 Bft)
08.06.2023 10:51 20,7 C 23,3 C 64 % 1016,8 hPa 0,0 l/m 5,4 km/h (1 Bft) NO 45 3 min 4,1 UV-I 686 W/m 13,6 C 20,7 C 14,5 km/h (3 Bft)
08.06.2023 10:54 20,8 C 23,9 C 67 % 1016,8 hPa 0,0 l/m 9,1 km/h (2 Bft) NO 55 3 min 4,0 UV-I 658 W/m 14,4 C 19,8 C 16,1 km/h (3 Bft)
08.06.2023 10:57 20,7 C 23,3 C 65 % 1016,8 hPa 0,0 l/m 9,1 km/h (2 Bft) O-NO 61 3 min 3,2 UV-I 550 W/m 13,9 C 19,7 C 14,5 km/h (3 Bft)
08.06.2023 11:00 20,5 C 23,9 C 67 % 1016,8 hPa 0,0 l/m 7,8 km/h (2 Bft) N-NO 13 3 min 4,1 UV-I 540 W/m 14,2 C 20,0 C 12,9 km/h (3 Bft)
08.06.2023 11:03 20,7 C 25,0 C 66 % 1016,8 hPa 0,0 l/m 15,8 km/h (3 Bft) NO 37 3 min 4,1 UV-I 710 W/m 14,1 C 17,9 C 22,5 km/h (4 Bft)
08.06.2023 11:06 20,5 C 24,4 C 64 % 1016,7 hPa 0,0 l/m 10,5 km/h (2 Bft) NO 36 3 min 3,8 UV-I 646 W/m 13,5 C 19,0 C 14,5 km/h (3 Bft)
08.06.2023 11:09 20,4 C 24,4 C 66 % 1016,8 hPa 0,0 l/m 11,3 km/h (2 Bft) N-NO 24 0 min 4,1 UV-I 338 W/m 13,8 C 18,7 C 19,3 km/h (3 Bft)
08.06.2023 11:12 20,7 C 26,1 C 65 % 1016,6 hPa 0,0 l/m 9,9 km/h (2 Bft) O-NO 68 3 min 4,5 UV-I 731 W/m 13,9 C 19,4 C 16,1 km/h (3 Bft)
08.06.2023 11:15 21,0 C 27,2 C 64 % 1016,6 hPa 0,0 l/m 8,6 km/h (2 Bft) NO 44 3 min 4,5 UV-I 750 W/m 13,9 C 20,2 C 16,1 km/h (3 Bft)
08.06.2023 11:18 21,2 C 27,8 C 64 % 1016,6 hPa 0,0 l/m 10,2 km/h (2 Bft) N-NO 17 3 min 4,6 UV-I 729 W/m 14,1 C 19,9 C 16,1 km/h (3 Bft)
08.06.2023 11:21 21,3 C 27,8 C 64 % 1016,7 hPa 0,0 l/m 7,1 km/h (2 Bft) N-NO 26 3 min 4,7 UV-I 731 W/m 14,2 C 21,0 C 14,5 km/h (3 Bft)
08.06.2023 11:24 21,4 C 27,8 C 64 % 1016,7 hPa 0,0 l/m 11,9 km/h (2 Bft) N-NO 16 3 min 4,7 UV-I 732 W/m 14,3 C 19,7 C 17,7 km/h (3 Bft)
08.06.2023 11:27 21,4 C 28,3 C 65 % 1016,7 hPa 0,0 l/m 12,1 km/h (2 Bft) N-NO 20 3 min 4,8 UV-I 748 W/m 14,5 C 19,6 C 19,3 km/h (3 Bft)
08.06.2023 11:30 21,4 C 27,8 C 62 % 1016,6 hPa 0,0 l/m 14,0 km/h (3 Bft) N 10 3 min 4,9 UV-I 779 W/m 13,8 C 19,2 C 22,5 km/h (4 Bft)
08.06.2023 11:33 21,5 C 27,2 C 62 % 1016,7 hPa 0,0 l/m 12,4 km/h (3 Bft) O-NO 63 3 min 4,9 UV-I 794 W/m 13,9 C 19,7 C 20,9 km/h (4 Bft)
08.06.2023 11:36 21,2 C 25,0 C 62 % 1016,6 hPa 0,0 l/m 11,9 km/h (2 Bft) N 360 3 min 3,0 UV-I 534 W/m 13,6 C 19,4 C 20,9 km/h (4 Bft)
08.06.2023 11:39 21,3 C 27,2 C 62 % 1016,7 hPa 0,0 l/m 16,2 km/h (3 Bft) O-NO 62 3 min 4,9 UV-I 635 W/m 13,7 C 18,6 C 25,7 km/h (4 Bft)
08.06.2023 11:42 21,3 C 26,1 C 62 % 1016,7 hPa 0,0 l/m 13,9 km/h (3 Bft) NO 42 3 min 4,1 UV-I 760 W/m 13,7 C 19,1 C 19,3 km/h (3 Bft)
08.06.2023 11:45 20,7 C 24,4 C 64 % 1016,7 hPa 0,0 l/m 8,1 km/h (2 Bft) N-NO 33 0 min 2,5 UV-I 221 W/m 13,6 C 20,0 C 19,3 km/h (3 Bft)
08.06.2023 11:48 20,7 C 25,0 C 66 % 1016,6 hPa 0,0 l/m 16,2 km/h (3 Bft) N 11 0 min 3,6 UV-I 427 W/m 14,1 C 17,8 C 22,5 km/h (4 Bft)
08.06.2023 11:51 21,4 C 28,3 C 65 % 1016,7 hPa 0,0 l/m 11,7 km/h (2 Bft) N-NO 12 3 min 5,4 UV-I 979 W/m 14,5 C 19,7 C 17,7 km/h (3 Bft)
08.06.2023 11:54 21,7 C 28,3 C 63 % 1016,7 hPa 0,0 l/m 12,6 km/h (3 Bft) O-NO 63 3 min 4,3 UV-I 973 W/m 14,3 C 19,8 C 17,7 km/h (3 Bft)
08.06.2023 11:57 22,1 C 28,9 C 62 % 1016,7 hPa 0,0 l/m 11,0 km/h (2 Bft) O-NO 74 3 min 4,9 UV-I 951 W/m 14,5 C 20,7 C 17,7 km/h (3 Bft)
08.06.2023 12:00 22,1 C 28,3 C 62 % 1016,7 hPa 0,0 l/m 14,2 km/h (3 Bft) N 360 3 min 4,6 UV-I 748 W/m 14,5 C 20,0 C 22,5 km/h (4 Bft)
08.06.2023 12:03 21,6 C 28,3 C 64 % 1016,7 hPa 0,0 l/m 12,1 km/h (2 Bft) N-NO 15 3 min 4,6 UV-I 475 W/m 14,5 C 19,8 C 17,7 km/h (3 Bft)
08.06.2023 12:06 21,8 C 29,4 C 64 % 1016,6 hPa 0,0 l/m 12,2 km/h (2 Bft) NO 40 3 min 5,6 UV-I 850 W/m 14,7 C 20,1 C 22,5 km/h (4 Bft)
08.06.2023 12:09 21,9 C 29,4 C 62 % 1016,6 hPa 0,0 l/m 16,0 km/h (3 Bft) NO 56 3 min 5,7 UV-I 951 W/m 14,3 C 19,4 C 25,7 km/h (4 Bft)
08.06.2023 12:12 21,8 C 28,9 C 62 % 1016,7 hPa 0,0 l/m 14,7 km/h (3 Bft) O-NO 78 3 min 5,1 UV-I 947 W/m 14,2 C 19,5 C 20,9 km/h (4 Bft)
08.06.2023 12:15 21,7 C 27,8 C 62 % 1016,7 hPa 0,0 l/m 9,5 km/h (2 Bft) N-NO 26 3 min 4,2 UV-I 892 W/m 14,1 C 20,7 C 16,1 km/h (3 Bft)
08.06.2023 12:18 21,2 C 25,0 C 64 % 1016,8 hPa 0,0 l/m 13,9 km/h (3 Bft) NO 34 0 min 2,6 UV-I 248 W/m 14,1 C 18,9 C 19,3 km/h (3 Bft)
08.06.2023 12:21 21,2 C 26,1 C 66 % 1016,6 hPa 0,0 l/m 14,6 km/h (3 Bft) N-NO 16 0 min 3,9 UV-I 285 W/m 14,6 C 18,8 C 19,3 km/h (3 Bft)
08.06.2023 12:24 21,4 C 27,2 C 64 % 1016,5 hPa 0,0 l/m 15,3 km/h (3 Bft) N-NO 28 3 min 5,5 UV-I 645 W/m 14,3 C 18,9 C 22,5 km/h (4 Bft)
08.06.2023 12:27 21,7 C 28,9 C 64 % 1016,6 hPa 0,0 l/m 15,3 km/h (3 Bft) N-NO 28 3 min 5,9 UV-I 928 W/m 14,6 C 19,2 C 22,5 km/h (4 Bft)
08.06.2023 12:30 21,8 C 28,9 C 63 % 1016,6 hPa 0,0 l/m 16,8 km/h (3 Bft) NO 38 3 min 5,9 UV-I 893 W/m 14,4 C 19,1 C 25,7 km/h (4 Bft)
08.06.2023 12:33 21,8 C 28,9 C 64 % 1016,5 hPa 0,0 l/m 17,5 km/h (3 Bft) NO 52 3 min 5,9 UV-I 893 W/m 14,7 C 19,0 C 24,1 km/h (4 Bft)
08.06.2023 12:36 21,8 C 29,4 C 62 % 1016,5 hPa 0,0 l/m 10,0 km/h (2 Bft) NO 41 3 min 5,2 UV-I 912 W/m 14,2 C 20,6 C 17,7 km/h (3 Bft)
08.06.2023 12:39 21,8 C 28,9 C 64 % 1016,5 hPa 0,0 l/m 10,2 km/h (2 Bft) O-NO 72 3 min 5,0 UV-I 998 W/m 14,7 C 20,6 C 19,3 km/h (3 Bft)
08.06.2023 12:42 21,8 C 29,4 C 63 % 1016,5 hPa 0,0 l/m 12,9 km/h (3 Bft) N-NO 12 3 min 6,1 UV-I 989 W/m 14,4 C 19,9 C 19,3 km/h (3 Bft)
08.06.2023 12:45 22,0 C 28,9 C 64 % 1016,5 hPa 0,0 l/m 10,4 km/h (2 Bft) N-NO 22 3 min 4,7 UV-I 962 W/m 14,9 C 20,7 C 20,9 km/h (4 Bft)
08.06.2023 12:48 22,2 C 29,4 C 65 % 1016,5 hPa 0,0 l/m 14,7 km/h (3 Bft) NO 54 3 min 5,8 UV-I 1004 W/m 15,3 C 20,0 C 24,1 km/h (4 Bft)
08.06.2023 12:51 22,1 C 30,0 C 64 % 1016,4 hPa 0,0 l/m 15,6 km/h (3 Bft) NO 55 3 min 6,1 UV-I 996 W/m 15,0 C 19,7 C 20,9 km/h (4 Bft)
08.06.2023 12:54 21,9 C 30,0 C 65 % 1016,4 hPa 0,0 l/m 11,8 km/h (2 Bft) N-NO 30 3 min 6,2 UV-I 958 W/m 15,0 C 20,3 C 20,9 km/h (4 Bft)
08.06.2023 12:57 22,4 C 30,6 C 64 % 1016,3 hPa 0,0 l/m 15,0 km/h (3 Bft) NO 49 3 min 6,1 UV-I 939 W/m 15,2 C 20,2 C 22,5 km/h (4 Bft)
08.06.2023 13:00 22,4 C 30,6 C 62 % 1016,3 hPa 0,0 l/m 13,5 km/h (3 Bft) N-NO 19 3 min 6,1 UV-I 907 W/m 14,8 C 20,5 C 19,3 km/h (3 Bft)
08.06.2023 13:03 22,3 C 30,6 C 63 % 1016,3 hPa 0,0 l/m 13,9 km/h (3 Bft) NO 43 3 min 6,1 UV-I 901 W/m 14,9 C 20,3 C 20,9 km/h (4 Bft)
08.06.2023 13:06 22,3 C 30,6 C 63 % 1016,2 hPa 0,0 l/m 8,5 km/h (2 Bft) N 11 3 min 6,2 UV-I 923 W/m 14,9 C 21,6 C 17,7 km/h (3 Bft)
08.06.2023 13:09 22,4 C 31,7 C 62 % 1016,2 hPa 0,0 l/m 4,8 km/h (1 Bft) N-NO 26 3 min 6,1 UV-I 958 W/m 14,8 C 22,4 C 8,0 km/h (2 Bft)
08.06.2023 13:12 22,2 C 28,9 C 65 % 1016,1 hPa 0,0 l/m 9,2 km/h (2 Bft) N-NO 30 3 min 3,3 UV-I 553 W/m 15,3 C 21,3 C 19,3 km/h (3 Bft)
08.06.2023 13:15 21,8 C 26,7 C 63 % 1016,1 hPa 0,0 l/m 14,4 km/h (3 Bft) N 5 0 min 2,7 UV-I 294 W/m 14,4 C 19,6 C 19,3 km/h (3 Bft)
08.06.2023 13:18 21,9 C 27,2 C 62 % 1016,1 hPa 0,0 l/m 9,7 km/h (2 Bft) O-NO 65 0 min 3,7 UV-I 347 W/m 14,3 C 20,8 C 19,3 km/h (3 Bft)
08.06.2023 13:21 22,1 C 27,2 C 65 % 1016,1 hPa 0,0 l/m 16,9 km/h (3 Bft) NO 39 0 min 3,4 UV-I 357 W/m 15,2 C 19,4 C 27,4 km/h (4 Bft)
08.06.2023 13:24 21,8 C 25,0 C 63 % 1016,1 hPa 0,0 l/m 19,2 km/h (3 Bft) NO 47 0 min 2,0 UV-I 251 W/m 14,4 C 18,7 C 25,7 km/h (4 Bft)
08.06.2023 13:27 21,3 C 23,3 C 63 % 1016,1 hPa 0,0 l/m 15,9 km/h (3 Bft) NO 47 0 min 2,0 UV-I 228 W/m 14,0 C 18,6 C 22,5 km/h (4 Bft)
08.06.2023 13:30 20,9 C 22,8 C 68 % 1016,1 hPa 0,0 l/m 10,3 km/h (2 Bft) O-NO 59 0 min 2,3 UV-I 247 W/m 14,8 C 19,5 C 19,3 km/h (3 Bft)
08.06.2023 13:33 20,5 C 22,2 C 66 % 1016,2 hPa 0,0 l/m 12,0 km/h (2 Bft) O-NO 70 0 min 2,7 UV-I 276 W/m 13,9 C 18,6 C 17,7 km/h (3 Bft)
08.06.2023 13:36 20,7 C 25,0 C 70 % 1016,1 hPa 0,0 l/m 7,6 km/h (2 Bft) O 80 0 min 4,3 UV-I 360 W/m 15,0 C 20,2 C 14,5 km/h (3 Bft)
08.06.2023 13:39 21,7 C 29,4 C 67 % 1015,9 hPa 0,0 l/m 8,5 km/h (2 Bft) NO 55 3 min 6,3 UV-I 1015 W/m 15,3 C 21,0 C 12,9 km/h (3 Bft)
08.06.2023 13:42 22,4 C 32,2 C 63 % 1015,9 hPa 0,0 l/m 10,0 km/h (2 Bft) NO 46 3 min 6,4 UV-I 1021 W/m 15,0 C 21,3 C 16,1 km/h (3 Bft)
08.06.2023 13:45 22,8 C 32,2 C 59 % 1015,9 hPa 0,0 l/m 10,4 km/h (2 Bft) O-NO 78 3 min 5,6 UV-I 1014 W/m 14,4 C 21,6 C 16,1 km/h (3 Bft)
08.06.2023 13:48 22,3 C 27,2 C 61 % 1015,9 hPa 0,0 l/m 13,9 km/h (3 Bft) O-NO 62 3 min 2,6 UV-I 544 W/m 14,4 C 20,3 C 20,9 km/h (4 Bft)
08.06.2023 13:51 21,7 C 24,4 C 61 % 1016,0 hPa 0,0 l/m 16,1 km/h (3 Bft) NO 43 0 min 2,0 UV-I 220 W/m 13,8 C 19,1 C 22,5 km/h (4 Bft)
08.06.2023 13:54 21,0 C 22,8 C 66 % 1016,1 hPa 0,0 l/m 15,3 km/h (3 Bft) O-NO 63 0 min 1,8 UV-I 193 W/m 14,4 C 18,4 C 20,9 km/h (4 Bft)
08.06.2023 13:57 20,2 C 21,1 C 69 % 1016,0 hPa 0,2 l/m 10,6 km/h (2 Bft) NO 55 0 min 2,0 UV-I 190 W/m 14,3 C 18,7 C 17,7 km/h (3 Bft)
08.06.2023 14:00 19,9 C 21,7 C 72 % 1016,0 hPa 0,0 l/m 5,5 km/h (1 Bft) NO 50 0 min 2,4 UV-I 200 W/m 14,7 C 19,9 C 9,7 km/h (2 Bft)
08.06.2023 14:03 20,0 C 24,4 C 73 % 1015,9 hPa 0,0 l/m 5,0 km/h (1 Bft) O-NO 62 0 min 4,1 UV-I 360 W/m 15,0 C 20,0 C 6,4 km/h (2 Bft)
08.06.2023 14:06 20,9 C 27,8 C 74 % 1015,9 hPa 0,0 l/m 5,2 km/h (1 Bft) O 88 3 min 5,9 UV-I 941 W/m 16,1 C 20,9 C 8,0 km/h (2 Bft)
08.06.2023 14:09 21,3 C 30,6 C 67 % 1015,8 hPa 0,0 l/m 4,1 km/h (1 Bft) O 88 3 min 6,0 UV-I 979 W/m 14,9 C 21,3 C 9,7 km/h (2 Bft)
08.06.2023 14:12 21,7 C 31,1 C 62 % 1015,8 hPa 0,0 l/m 2,8 km/h (1 Bft) O 98 3 min 4,9 UV-I 1025 W/m 14,1 C 21,7 C 11,3 km/h (2 Bft)
08.06.2023 14:15 21,4 C 26,7 C 63 % 1015,9 hPa 0,0 l/m 16,3 km/h (3 Bft) O-NO 65 0 min 1,7 UV-I 376 W/m 14,1 C 18,7 C 30,6 km/h (5 Bft)
08.06.2023 14:18 20,8 C 22,8 C 65 % 1015,8 hPa 0,0 l/m 20,6 km/h (4 Bft) NO 40 0 min 1,5 UV-I 197 W/m 14,0 C 17,1 C 30,6 km/h (5 Bft)
08.06.2023 14:21 20,3 C 21,7 C 66 % 1015,7 hPa 0,0 l/m 17,5 km/h (3 Bft) N-NO 30 0 min 1,8 UV-I 195 W/m 13,7 C 17,1 C 24,1 km/h (4 Bft)
08.06.2023 14:24 20,1 C 21,7 C 68 % 1015,7 hPa 0,0 l/m 12,4 km/h (3 Bft) NO 55 0 min 2,3 UV-I 218 W/m 14,0 C 18,0 C 17,7 km/h (3 Bft)
08.06.2023 14:27 20,5 C 23,9 C 69 % 1015,8 hPa 0,0 l/m 9,4 km/h (2 Bft) N-NO 20 0 min 4,4 UV-I 463 W/m 14,6 C 19,4 C 16,1 km/h (3 Bft)
08.06.2023 14:30 21,4 C 29,4 C 62 % 1015,7 hPa 0,0 l/m 10,8 km/h (2 Bft) NO 42 3 min 6,0 UV-I 955 W/m 13,8 C 20,0 C 14,5 km/h (3 Bft)
08.06.2023 14:33 21,9 C 31,1 C 63 % 1015,6 hPa 0,0 l/m 7,5 km/h (2 Bft) N-NO 20 3 min 6,0 UV-I 926 W/m 14,5 C 21,5 C 12,9 km/h (3 Bft)
08.06.2023 14:36 22,2 C 31,7 C 62 % 1015,6 hPa 0,0 l/m 10,0 km/h (2 Bft) O-NO 75 3 min 5,9 UV-I 890 W/m 14,6 C 21,1 C 17,7 km/h (3 Bft)
08.06.2023 14:39 22,7 C 31,7 C 63 % 1015,6 hPa 0,0 l/m 10,8 km/h (2 Bft) N-NO 33 3 min 5,9 UV-I 883 W/m 15,3 C 21,4 C 17,7 km/h (3 Bft)
08.06.2023 14:42 22,8 C 32,2 C 64 % 1015,6 hPa 0,0 l/m 9,2 km/h (2 Bft) N 11 3 min 5,9 UV-I 871 W/m 15,6 C 21,9 C 16,1 km/h (3 Bft)
08.06.2023 14:45 22,9 C 32,2 C 60 % 1015,5 hPa 0,0 l/m 8,2 km/h (2 Bft) N-NO 32 3 min 5,9 UV-I 863 W/m 14,7 C 22,3 C 14,5 km/h (3 Bft)
08.06.2023 14:48 23,2 C 32,8 C 61 % 1015,5 hPa 0,0 l/m 12,1 km/h (2 Bft) N-NO 19 3 min 5,8 UV-I 854 W/m 15,3 C 21,7 C 20,9 km/h (4 Bft)
08.06.2023 14:51 23,2 C 32,8 C 60 % 1015,4 hPa 0,0 l/m 14,3 km/h (3 Bft) N-NO 20 3 min 5,8 UV-I 854 W/m 15,0 C 21,3 C 22,5 km/h (4 Bft)
08.06.2023 14:54 23,2 C 32,2 C 60 % 1015,3 hPa 0,0 l/m 15,0 km/h (3 Bft) N-NO 25 3 min 5,8 UV-I 846 W/m 15,0 C 21,1 C 27,4 km/h (4 Bft)
08.06.2023 14:57 23,2 C 31,7 C 60 % 1015,4 hPa 0,0 l/m 11,6 km/h (2 Bft) NO 48 3 min 5,8 UV-I 843 W/m 15,0 C 21,8 C 17,7 km/h (3 Bft)
08.06.2023 15:00 23,3 C 31,7 C 58 % 1015,4 hPa 0,0 l/m 12,6 km/h (3 Bft) NO 44 3 min 5,8 UV-I 853 W/m 14,6 C 21,7 C 22,5 km/h (4 Bft)
08.06.2023 15:03 23,4 C 32,2 C 60 % 1015,2 hPa 0,0 l/m 15,5 km/h (3 Bft) N-NO 31 3 min 5,8 UV-I 862 W/m 15,2 C 21,3 C 24,1 km/h (4 Bft)
08.06.2023 15:06 23,6 C 33,3 C 57 % 1015,2 hPa 0,0 l/m 12,2 km/h (2 Bft) NO 41 3 min 5,8 UV-I 869 W/m 14,6 C 22,1 C 20,9 km/h (4 Bft)
08.06.2023 15:09 23,5 C 33,3 C 55 % 1015,2 hPa 0,0 l/m 13,7 km/h (3 Bft) NO 42 3 min 5,8 UV-I 886 W/m 13,9 C 21,7 C 22,5 km/h (4 Bft)
08.06.2023 15:12 23,7 C 33,9 C 56 % 1015,2 hPa 0,0 l/m 9,3 km/h (2 Bft) NO 39 3 min 5,9 UV-I 920 W/m 14,4 C 22,9 C 16,1 km/h (3 Bft)
08.06.2023 15:15 23,6 C 31,7 C 56 % 1015,2 hPa 0,0 l/m 20,5 km/h (4 Bft) NO 34 3 min 4,8 UV-I 909 W/m 14,3 C 20,8 C 27,4 km/h (4 Bft)
08.06.2023 15:18 23,7 C 32,2 C 57 % 1015,2 hPa 0,0 l/m 15,1 km/h (3 Bft) N 10 3 min 5,1 UV-I 944 W/m 14,7 C 21,7 C 25,7 km/h (4 Bft)
08.06.2023 15:21 23,4 C 30,0 C 56 % 1015,1 hPa 0,0 l/m 18,0 km/h (3 Bft) N-NO 33 3 min 3,2 UV-I 564 W/m 14,1 C 20,9 C 22,5 km/h (4 Bft)
08.06.2023 15:24 23,2 C 29,4 C 56 % 1015,1 hPa 0,0 l/m 18,0 km/h (3 Bft) NO 47 3 min 4,3 UV-I 609 W/m 13,9 C 20,6 C 25,7 km/h (4 Bft)
08.06.2023 15:27 22,7 C 26,1 C 56 % 1015,1 hPa 0,0 l/m 17,5 km/h (3 Bft) NO 41 0 min 2,8 UV-I 241 W/m 13,5 C 20,1 C 24,1 km/h (4 Bft)
08.06.2023 15:30 22,2 C 25,0 C 58 % 1015,2 hPa 0,0 l/m 17,1 km/h (3 Bft) N-NO 22 0 min 3,1 UV-I 209 W/m 13,5 C 19,5 C 27,4 km/h (4 Bft)
08.06.2023 15:33 22,7 C 28,9 C 61 % 1015,1 hPa 0,0 l/m 11,5 km/h (2 Bft) N 5 3 min 5,1 UV-I 576 W/m 14,8 C 21,3 C 17,7 km/h (3 Bft)
08.06.2023 15:36 23,3 C 31,7 C 60 % 1014,9 hPa 0,0 l/m 12,8 km/h (3 Bft) O-NO 59 3 min 5,3 UV-I 853 W/m 15,1 C 21,7 C 17,7 km/h (3 Bft)
08.06.2023 15:39 23,9 C 33,3 C 57 % 1014,9 hPa 0,0 l/m 7,2 km/h (2 Bft) N-NO 18 3 min 4,9 UV-I 866 W/m 14,9 C 23,7 C 14,5 km/h (3 Bft)
08.06.2023 15:42 23,9 C 33,3 C 56 % 1015,0 hPa 0,0 l/m 19,3 km/h (3 Bft) N-NO 25 3 min 4,9 UV-I 891 W/m 14,6 C 21,3 C 25,7 km/h (4 Bft)
08.06.2023 15:45 23,3 C 30,6 C 56 % 1014,9 hPa 0,0 l/m 13,8 km/h (3 Bft) N-NO 20 3 min 4,0 UV-I 891 W/m 14,0 C 21,5 C 19,3 km/h (3 Bft)
08.06.2023 15:48 23,4 C 32,2 C 55 % 1014,9 hPa 0,0 l/m 16,4 km/h (3 Bft) N 5 3 min 4,9 UV-I 835 W/m 13,8 C 21,1 C 24,1 km/h (4 Bft)
08.06.2023 15:51 23,5 C 30,6 C 55 % 1014,9 hPa 0,0 l/m 16,2 km/h (3 Bft) O 86 3 min 4,5 UV-I 826 W/m 13,9 C 21,3 C 29,0 km/h (5 Bft)
08.06.2023 15:54 23,4 C 30,6 C 57 % 1014,9 hPa 0,0 l/m 6,3 km/h (2 Bft) O-NO 69 3 min 3,6 UV-I 811 W/m 14,4 C 23,4 C 14,5 km/h (3 Bft)
08.06.2023 15:57 23,1 C 28,3 C 54 % 1014,8 hPa 0,0 l/m 14,2 km/h (3 Bft) NO 44 3 min 3,5 UV-I 629 W/m 13,3 C 21,2 C 22,5 km/h (4 Bft)
08.06.2023 16:00 23,4 C 30,6 C 56 % 1014,8 hPa 0,0 l/m 14,2 km/h (3 Bft) N-NO 27 3 min 4,5 UV-I 698 W/m 14,1 C 21,5 C 22,5 km/h (4 Bft)
08.06.2023 16:03 23,3 C 30,0 C 58 % 1014,8 hPa 0,0 l/m 18,1 km/h (3 Bft) NO 46 0 min 3,8 UV-I 315 W/m 14,6 C 20,7 C 25,7 km/h (4 Bft)
08.06.2023 16:06 23,4 C 31,1 C 56 % 1014,9 hPa 0,0 l/m 16,9 km/h (3 Bft) O-NO 60 3 min 4,6 UV-I 793 W/m 14,1 C 21,1 C 24,1 km/h (4 Bft)
08.06.2023 16:09 23,6 C 31,1 C 56 % 1014,7 hPa 0,0 l/m 16,1 km/h (3 Bft) N-NO 33 3 min 4,6 UV-I 783 W/m 14,3 C 21,4 C 24,1 km/h (4 Bft)
08.06.2023 16:12 23,7 C 32,2 C 55 % 1014,8 hPa 0,0 l/m 16,8 km/h (3 Bft) N-NO 31 3 min 4,6 UV-I 768 W/m 14,1 C 21,4 C 24,1 km/h (4 Bft)
08.06.2023 16:15 23,7 C 32,2 C 55 % 1014,7 hPa 0,0 l/m 15,5 km/h (3 Bft) NO 42 3 min 4,6 UV-I 760 W/m 14,1 C 21,6 C 25,7 km/h (4 Bft)
08.06.2023 16:18 23,7 C 31,7 C 54 % 1014,7 hPa 0,0 l/m 15,3 km/h (3 Bft) NO 34 3 min 4,6 UV-I 759 W/m 13,8 C 21,7 C 22,5 km/h (4 Bft)
08.06.2023 16:21 23,7 C 31,7 C 55 % 1014,6 hPa 0,0 l/m 13,1 km/h (3 Bft) N-NO 23 3 min 4,5 UV-I 762 W/m 14,1 C 22,1 C 19,3 km/h (3 Bft)
08.06.2023 16:24 23,9 C 33,9 C 55 % 1014,5 hPa 0,0 l/m 13,2 km/h (3 Bft) N-NO 26 3 min 4,6 UV-I 793 W/m 14,3 C 22,3 C 17,7 km/h (3 Bft)
08.06.2023 16:27 24,1 C 35,0 C 54 % 1014,4 hPa 0,0 l/m 9,6 km/h (2 Bft) N 5 3 min 4,7 UV-I 834 W/m 14,2 C 23,3 C 17,7 km/h (3 Bft)
08.06.2023 16:30 24,2 C 35,6 C 58 % 1014,5 hPa 0,0 l/m 13,8 km/h (3 Bft) N-NO 22 3 min 4,6 UV-I 876 W/m 15,4 C 22,5 C 20,9 km/h (4 Bft)
08.06.2023 16:33 23,9 C 32,8 C 56 % 1014,4 hPa 0,0 l/m 15,3 km/h (3 Bft) N-NO 28 3 min 3,0 UV-I 644 W/m 14,6 C 21,9 C 29,0 km/h (5 Bft)
08.06.2023 16:37 23,1 C 26,7 C 59 % 1014,4 hPa 0,0 l/m 16,1 km/h (3 Bft) N 5 0 min 1,2 UV-I 177 W/m 14,6 C 20,8 C 27,4 km/h (4 Bft)
08.06.2023 16:39 22,7 C 25,6 C 58 % 1014,4 hPa 0,0 l/m 18,5 km/h (3 Bft) NO 47 0 min 1,0 UV-I 129 W/m 14,0 C 19,9 C 24,1 km/h (4 Bft)
08.06.2023 16:42 22,3 C 24,4 C 58 % 1014,4 hPa 0,0 l/m 15,0 km/h (3 Bft) N-NO 24 0 min 1,1 UV-I 121 W/m 13,6 C 20,0 C 24,1 km/h (4 Bft)
08.06.2023 16:45 22,1 C 23,3 C 58 % 1014,4 hPa 0,0 l/m 17,4 km/h (3 Bft) N-NO 27 0 min 1,2 UV-I 113 W/m 13,4 C 19,3 C 24,1 km/h (4 Bft)
08.06.2023 16:48 21,8 C 22,8 C 60 % 1014,5 hPa 0,0 l/m 15,7 km/h (3 Bft) N 5 0 min 1,3 UV-I 106 W/m 13,7 C 19,3 C 20,9 km/h (4 Bft)
08.06.2023 16:51 21,6 C 22,2 C 60 % 1014,5 hPa 0,0 l/m 12,2 km/h (2 Bft) N 349 0 min 1,3 UV-I 103 W/m 13,5 C 19,8 C 17,7 km/h (3 Bft)
08.06.2023 16:54 21,4 C 22,2 C 60 % 1014,5 hPa 0,0 l/m 15,5 km/h (3 Bft) N 5 0 min 1,3 UV-I 109 W/m 13,3 C 18,8 C 22,5 km/h (4 Bft)
08.06.2023 16:57 21,3 C 22,2 C 61 % 1014,5 hPa 0,0 l/m 14,7 km/h (3 Bft) N 9 0 min 1,4 UV-I 116 W/m 13,5 C 18,9 C 19,3 km/h (3 Bft)
08.06.2023 17:00 21,4 C 22,2 C 61 % 1014,5 hPa 0,0 l/m 9,3 km/h (2 Bft) N-NW 348 0 min 1,4 UV-I 120 W/m 13,6 C 20,4 C 19,3 km/h (3 Bft)
08.06.2023 17:03 21,4 C 22,2 C 61 % 1014,5 hPa 0,0 l/m 9,1 km/h (2 Bft) N 350 0 min 1,4 UV-I 129 W/m 13,6 C 20,5 C 14,5 km/h (3 Bft)
08.06.2023 17:06 21,5 C 22,2 C 61 % 1014,5 hPa 0,0 l/m 8,7 km/h (2 Bft) N 5 0 min 1,5 UV-I 157 W/m 13,7 C 20,7 C 12,9 km/h (3 Bft)
08.06.2023 17:09 21,7 C 23,3 C 61 % 1014,4 hPa 0,0 l/m 11,6 km/h (2 Bft) N 5 0 min 1,8 UV-I 232 W/m 13,8 C 20,1 C 19,3 km/h (3 Bft)
08.06.2023 17:12 22,5 C 27,2 C 59 % 1014,3 hPa 0,0 l/m 14,2 km/h (3 Bft) NO 46 3 min 2,8 UV-I 555 W/m 14,1 C 20,4 C 22,5 km/h (4 Bft)
08.06.2023 17:15 22,8 C 26,1 C 56 % 1014,3 hPa 0,0 l/m 18,8 km/h (3 Bft) NO 44 3 min 2,0 UV-I 437 W/m 13,6 C 20,0 C 25,7 km/h (4 Bft)
08.06.2023 17:18 22,3 C 23,3 C 60 % 1014,5 hPa 0,2 l/m 19,4 km/h (3 Bft) NO 40 0 min 1,2 UV-I 194 W/m 14,2 C 19,3 C 27,4 km/h (4 Bft)
08.06.2023 17:21 21,2 C 21,1 C 64 % 1014,5 hPa 0,0 l/m 15,7 km/h (3 Bft) NO 43 0 min 0,9 UV-I 131 W/m 14,1 C 18,6 C 24,1 km/h (4 Bft)
08.06.2023 17:24 20,3 C 20,6 C 70 % 1014,5 hPa 0,2 l/m 11,3 km/h (2 Bft) N-NO 24 0 min 0,7 UV-I 102 W/m 14,6 C 18,6 C 14,5 km/h (3 Bft)
08.06.2023 17:27 19,7 C 20,0 C 72 % 1014,6 hPa 0,0 l/m 9,1 km/h (2 Bft) N-NO 13 0 min 0,6 UV-I 69 W/m 14,5 C 18,6 C 14,5 km/h (3 Bft)
08.06.2023 17:30 19,3 C 19,4 C 75 % 1014,6 hPa 0,0 l/m 7,3 km/h (2 Bft) N-NO 15 0 min 0,3 UV-I 54 W/m 14,8 C 18,9 C 11,3 km/h (2 Bft)
08.06.2023 17:33 18,9 C 18,9 C 76 % 1014,6 hPa 0,0 l/m 5,5 km/h (1 Bft) N-NO 20 0 min 0,0 UV-I 49 W/m 14,6 C 18,9 C 8,0 km/h (2 Bft)
08.06.2023 17:36 18,7 C 18,9 C 77 % 1014,6 hPa 0,0 l/m 6,4 km/h (2 Bft) N-NO 19 0 min 0,0 UV-I 47 W/m 14,6 C 18,7 C 12,9 km/h (3 Bft)
08.06.2023 17:39 18,6 C 18,3 C 77 % 1014,6 hPa 0,0 l/m 5,5 km/h (1 Bft) N-NO 14 0 min 0,0 UV-I 48 W/m 14,5 C 18,6 C 8,0 km/h (2 Bft)
08.06.2023 17:42 18,6 C 18,3 C 76 % 1014,7 hPa 0,0 l/m 7,0 km/h (2 Bft) N 355 0 min 0,0 UV-I 51 W/m 14,3 C 18,3 C 12,9 km/h (3 Bft)
08.06.2023 17:45 18,6 C 18,3 C 76 % 1014,6 hPa 0,0 l/m 5,8 km/h (2 Bft) N-NO 14 0 min 0,5 UV-I 56 W/m 14,3 C 18,6 C 11,3 km/h (2 Bft)
08.06.2023 17:48 18,6 C 18,3 C 74 % 1014,6 hPa 0,0 l/m 6,2 km/h (2 Bft) N 5 0 min 0,8 UV-I 61 W/m 13,9 C 18,6 C 9,7 km/h (2 Bft)
08.06.2023 17:51 18,8 C 18,3 C 73 % 1014,6 hPa 0,0 l/m 6,8 km/h (2 Bft) N-NW 334 0 min 0,8 UV-I 67 W/m 13,9 C 18,6 C 9,7 km/h (2 Bft)
08.06.2023 17:54 18,9 C 18,3 C 73 % 1014,7 hPa 0,0 l/m 7,7 km/h (2 Bft) N-NW 328 0 min 0,9 UV-I 71 W/m 13,9 C 18,3 C 12,9 km/h (3 Bft)
08.06.2023 17:57 19,1 C 18,3 C 72 % 1014,6 hPa 0,0 l/m 7,8 km/h (2 Bft) N 355 0 min 0,9 UV-I 74 W/m 13,9 C 18,5 C 12,9 km/h (3 Bft)
08.06.2023 18:00 19,2 C 18,3 C 73 % 1014,7 hPa 0,0 l/m 6,5 km/h (2 Bft) N-NW 344 0 min 0,9 UV-I 81 W/m 14,2 C 19,2 C 12,9 km/h (3 Bft)
08.06.2023 18:03 19,3 C 18,3 C 73 % 1014,5 hPa 0,0 l/m 6,7 km/h (2 Bft) N 5 0 min 1,0 UV-I 91 W/m 14,3 C 19,2 C 9,7 km/h (2 Bft)
08.06.2023 18:06 19,3 C 18,9 C 73 % 1014,5 hPa 0,0 l/m 7,5 km/h (2 Bft) N 9 0 min 1,0 UV-I 101 W/m 14,3 C 18,8 C 14,5 km/h (3 Bft)
08.06.2023 18:09 19,3 C 19,4 C 73 % 1014,4 hPa 0,0 l/m 10,4 km/h (2 Bft) N-NO 27 0 min 1,1 UV-I 109 W/m 14,3 C 17,7 C 16,1 km/h (3 Bft)
08.06.2023 18:12 19,4 C 19,4 C 73 % 1014,4 hPa 0,0 l/m 8,8 km/h (2 Bft) N-NO 20 0 min 1,1 UV-I 117 W/m 14,4 C 18,4 C 14,5 km/h (3 Bft)
08.06.2023 18:15 19,4 C 20,0 C 71 % 1014,3 hPa 0,0 l/m 9,8 km/h (2 Bft) N 11 0 min 1,1 UV-I 122 W/m 14,0 C 18,0 C 16,1 km/h (3 Bft)
08.06.2023 18:18 19,6 C 20,0 C 71 % 1014,3 hPa 0,0 l/m 8,5 km/h (2 Bft) N-NO 13 0 min 1,1 UV-I 123 W/m 14,2 C 18,7 C 12,9 km/h (3 Bft)
08.06.2023 18:22 19,6 C 20,6 C 69 % 1014,3 hPa 0,0 l/m 10,9 km/h (2 Bft) N-NO 19 0 min 1,2 UV-I 151 W/m 13,8 C 17,9 C 22,5 km/h (4 Bft)
08.06.2023 18:24 19,8 C 21,1 C 69 % 1014,2 hPa 0,0 l/m 11,3 km/h (2 Bft) N-NO 29 0 min 1,3 UV-I 195 W/m 13,9 C 18,0 C 17,7 km/h (3 Bft)
08.06.2023 18:27 20,1 C 21,7 C 68 % 1014,3 hPa 0,0 l/m 10,3 km/h (2 Bft) N-NO 13 3 min 1,4 UV-I 254 W/m 14,0 C 18,7 C 16,1 km/h (3 Bft)
08.06.2023 18:30 20,3 C 22,2 C 69 % 1014,3 hPa 0,0 l/m 8,7 km/h (2 Bft) N-NO 17 3 min 1,4 UV-I 304 W/m 14,4 C 19,4 C 14,5 km/h (3 Bft)
08.06.2023 18:33 20,6 C 22,8 C 68 % 1014,3 hPa 0,0 l/m 9,1 km/h (2 Bft) N-NO 17 3 min 1,4 UV-I 316 W/m 14,5 C 19,6 C 17,7 km/h (3 Bft)
08.06.2023 18:36 20,8 C 22,8 C 65 % 1014,3 hPa 0,0 l/m 13,9 km/h (3 Bft) N 5 3 min 1,4 UV-I 314 W/m 14,0 C 18,5 C 17,7 km/h (3 Bft)
08.06.2023 18:39 20,9 C 22,2 C 64 % 1014,3 hPa 0,0 l/m 13,7 km/h (3 Bft) N-NO 13 3 min 1,5 UV-I 343 W/m 13,8 C 18,6 C 22,5 km/h (4 Bft)
08.06.2023 18:42 21,1 C 22,2 C 65 % 1014,4 hPa 0,0 l/m 14,2 km/h (3 Bft) N-NO 13 3 min 1,5 UV-I 349 W/m 14,3 C 18,8 C 19,3 km/h (3 Bft)
08.06.2023 18:45 21,1 C 22,8 C 67 % 1014,5 hPa 0,0 l/m 13,1 km/h (3 Bft) N-NW 348 3 min 1,4 UV-I 331 W/m 14,7 C 19,0 C 19,3 km/h (3 Bft)
08.06.2023 18:48 20,8 C 22,8 C 66 % 1014,4 hPa 0,0 l/m 15,5 km/h (3 Bft) N 360 3 min 1,3 UV-I 299 W/m 14,2 C 18,1 C 22,5 km/h (4 Bft)
08.06.2023 18:52 20,7 C 23,3 C 67 % 1014,4 hPa 0,0 l/m 10,3 km/h (2 Bft) N-NO 26 4 min 1,2 UV-I 237 W/m 14,3 C 19,3 C 17,7 km/h (3 Bft)
08.06.2023 18:54 20,6 C 23,9 C 68 % 1014,4 hPa 0,0 l/m 9,4 km/h (2 Bft) N-NO 16 0 min 1,1 UV-I 203 W/m 14,5 C 19,5 C 12,9 km/h (3 Bft)
08.06.2023 18:57 20,6 C 23,3 C 68 % 1014,5 hPa 0,0 l/m 10,3 km/h (2 Bft) N 5 0 min 1,1 UV-I 177 W/m 14,5 C 19,2 C 16,1 km/h (3 Bft)
08.06.2023 19:00 20,4 C 23,3 C 69 % 1014,5 hPa 0,0 l/m 8,6 km/h (2 Bft) N 355 0 min 1,1 UV-I 174 W/m 14,5 C 19,6 C 16,1 km/h (3 Bft)
08.06.2023 19:03 20,3 C 23,9 C 70 % 1014,5 hPa 0,0 l/m 8,7 km/h (2 Bft) N-NO 28 3 min 1,1 UV-I 207 W/m 14,6 C 19,4 C 14,5 km/h (3 Bft)
08.06.2023 19:07 20,5 C 25,0 C 67 % 1014,4 hPa 0,0 l/m 8,4 km/h (2 Bft) NO 41 4 min 1,1 UV-I 236 W/m 14,2 C 19,7 C 14,5 km/h (3 Bft)
08.06.2023 19:09 20,6 C 25,0 C 68 % 1014,5 hPa 0,0 l/m 9,3 km/h (2 Bft) N-NO 15 2 min 1,1 UV-I 235 W/m 14,5 C 19,5 C 14,5 km/h (3 Bft)
08.06.2023 19:12 20,5 C 24,4 C 68 % 1014,5 hPa 0,0 l/m 14,4 km/h (3 Bft) N 11 3 min 1,1 UV-I 238 W/m 14,4 C 18,0 C 22,5 km/h (4 Bft)
08.06.2023 19:15 20,6 C 25,0 C 67 % 1014,4 hPa 0,0 l/m 12,3 km/h (3 Bft) N 5 3 min 1,0 UV-I 242 W/m 14,3 C 18,6 C 19,3 km/h (3 Bft)
08.06.2023 19:18 20,5 C 25,6 C 68 % 1014,3 hPa 0,0 l/m 10,3 km/h (2 Bft) N-NO 28 3 min 1,0 UV-I 228 W/m 14,4 C 19,1 C 16,1 km/h (3 Bft)
08.06.2023 19:21 20,5 C 25,0 C 67 % 1014,4 hPa 0,0 l/m 14,5 km/h (3 Bft) NO 40 3 min 1,0 UV-I 236 W/m 14,2 C 18,0 C 22,5 km/h (4 Bft)
08.06.2023 19:24 20,4 C 26,1 C 69 % 1014,4 hPa 0,0 l/m 8,0 km/h (2 Bft) N-NO 27 3 min 1,0 UV-I 236 W/m 14,5 C 19,8 C 12,9 km/h (3 Bft)
08.06.2023 19:27 20,4 C 26,1 C 68 % 1014,4 hPa 0,0 l/m 8,9 km/h (2 Bft) N-NO 14 3 min 0,9 UV-I 230 W/m 14,3 C 19,4 C 16,1 km/h (3 Bft)
08.06.2023 19:30 20,5 C 25,6 C 68 % 1014,5 hPa 0,0 l/m 9,3 km/h (2 Bft) N-NW 344 3 min 0,9 UV-I 232 W/m 14,4 C 19,4 C 14,5 km/h (3 Bft)
08.06.2023 19:33 20,4 C 25,0 C 68 % 1014,4 hPa 0,0 l/m 11,2 km/h (2 Bft) N 355 3 min 0,9 UV-I 229 W/m 14,3 C 18,7 C 17,7 km/h (3 Bft)
08.06.2023 19:36 20,4 C 23,9 C 69 % 1014,4 hPa 0,0 l/m 9,6 km/h (2 Bft) NO 37 3 min 0,8 UV-I 220 W/m 14,5 C 19,2 C 16,1 km/h (3 Bft)
08.06.2023 19:39 20,3 C 23,9 C 69 % 1014,5 hPa 0,0 l/m 12,1 km/h (2 Bft) N-NO 15 3 min 0,8 UV-I 214 W/m 14,4 C 18,3 C 19,3 km/h (3 Bft)
08.06.2023 19:42 20,3 C 23,9 C 68 % 1014,4 hPa 0,0 l/m 16,5 km/h (3 Bft) N-NO 19 3 min 0,8 UV-I 194 W/m 14,2 C 17,3 C 24,1 km/h (4 Bft)
08.06.2023 19:45 20,4 C 23,3 C 68 % 1014,5 hPa 0,0 l/m 11,4 km/h (2 Bft) N-NO 26 3 min 0,7 UV-I 201 W/m 14,3 C 18,7 C 22,5 km/h (4 Bft)
08.06.2023 19:48 20,5 C 22,8 C 68 % 1014,5 hPa 0,0 l/m 10,3 km/h (2 Bft) N-NO 32 3 min 0,7 UV-I 193 W/m 14,4 C 19,1 C 19,3 km/h (3 Bft)
08.06.2023 19:51 20,4 C 21,7 C 67 % 1014,5 hPa 0,0 l/m 14,0 km/h (3 Bft) N-NO 24 3 min 0,7 UV-I 186 W/m 14,1 C 18,0 C 19,3 km/h (3 Bft)
08.06.2023 19:54 20,3 C 21,1 C 67 % 1014,5 hPa 0,0 l/m 13,6 km/h (3 Bft) NO 45 3 min 0,6 UV-I 177 W/m 14,0 C 18,0 C 20,9 km/h (4 Bft)
08.06.2023 19:57 20,3 C 20,6 C 67 % 1014,5 hPa 0,0 l/m 11,8 km/h (2 Bft) N-NO 19 3 min 0,6 UV-I 169 W/m 14,0 C 18,4 C 16,1 km/h (3 Bft)
08.06.2023 20:00 20,3 C 20,0 C 66 % 1014,6 hPa 0,0 l/m 15,5 km/h (3 Bft) N-NO 22 3 min 0,6 UV-I 161 W/m 13,7 C 17,5 C 19,3 km/h (3 Bft)
08.06.2023 20:03 20,3 C 20,0 C 68 % 1014,6 hPa 0,0 l/m 9,0 km/h (2 Bft) N-NO 27 3 min 0,5 UV-I 153 W/m 14,2 C 19,3 C 16,1 km/h (3 Bft)
08.06.2023 20:06 20,2 C 20,0 C 68 % 1014,5 hPa 0,0 l/m 7,4 km/h (2 Bft) NO 46 3 min 0,5 UV-I 147 W/m 14,1 C 19,8 C 12,9 km/h (3 Bft)
08.06.2023 20:09 20,3 C 19,4 C 67 % 1014,5 hPa 0,0 l/m 11,1 km/h (2 Bft) N-NO 33 3 min 0,5 UV-I 141 W/m 14,0 C 18,6 C 17,7 km/h (3 Bft)
08.06.2023 20:12 20,3 C 19,4 C 68 % 1014,5 hPa 0,0 l/m 11,0 km/h (2 Bft) N-NO 17 3 min 0,4 UV-I 133 W/m 14,2 C 18,7 C 19,3 km/h (3 Bft)
08.06.2023 20:15 20,3 C 19,4 C 68 % 1014,6 hPa 0,0 l/m 9,1 km/h (2 Bft) NO 42 3 min 0,0 UV-I 127 W/m 14,2 C 19,3 C 17,7 km/h (3 Bft)
08.06.2023 20:18 20,3 C 19,4 C 68 % 1014,7 hPa 0,0 l/m 7,2 km/h (2 Bft) NO 34 3 min 0,0 UV-I 121 W/m 14,2 C 20,0 C 12,9 km/h (3 Bft)
08.06.2023 20:21 20,2 C 19,4 C 69 % 1014,6 hPa 0,0 l/m 9,1 km/h (2 Bft) N-NO 27 3 min 0,0 UV-I 114 W/m 14,3 C 19,2 C 16,1 km/h (3 Bft)
08.06.2023 20:24 20,1 C 18,9 C 69 % 1014,7 hPa 0,0 l/m 9,8 km/h (2 Bft) N-NO 23 3 min 0,0 UV-I 108 W/m 14,2 C 18,8 C 17,7 km/h (3 Bft)
08.06.2023 20:27 20,2 C 18,9 C 69 % 1014,8 hPa 0,0 l/m 14,2 km/h (3 Bft) N-NO 28 3 min 0,0 UV-I 103 W/m 14,3 C 17,7 C 19,3 km/h (3 Bft)
08.06.2023 20:30 20,2 C 18,9 C 69 % 1014,7 hPa 0,0 l/m 7,8 km/h (2 Bft) NO 34 3 min 0,0 UV-I 94 W/m 14,3 C 19,6 C 14,5 km/h (3 Bft)
08.06.2023 20:33 20,2 C 19,4 C 69 % 1014,7 hPa 0,0 l/m 10,6 km/h (2 Bft) NO 34 0 min 0,0 UV-I 77 W/m 14,3 C 18,7 C 16,1 km/h (3 Bft)
08.06.2023 20:36 20,2 C 19,4 C 69 % 1014,8 hPa 0,0 l/m 8,6 km/h (2 Bft) O-NO 61 3 min 0,0 UV-I 78 W/m 14,3 C 19,3 C 16,1 km/h (3 Bft)
08.06.2023 20:39 20,3 C 19,4 C 69 % 1014,9 hPa 0,0 l/m 9,5 km/h (2 Bft) NO 52 3 min 0,0 UV-I 87 W/m 14,4 C 19,1 C 16,1 km/h (3 Bft)
08.06.2023 20:42 20,4 C 19,4 C 69 % 1014,9 hPa 0,0 l/m 14,1 km/h (3 Bft) O 93 3 min 0,0 UV-I 77 W/m 14,5 C 17,9 C 30,6 km/h (5 Bft)
08.06.2023 20:45 20,3 C 18,9 C 65 % 1015,0 hPa 0,0 l/m 21,5 km/h (4 Bft) O 82 0 min 0,0 UV-I 47 W/m 13,5 C 16,3 C 38,6 km/h (5 Bft)
08.06.2023 20:48 20,1 C 18,9 C 64 % 1015,1 hPa 0,0 l/m 21,1 km/h (4 Bft) O-NO 57 0 min 0,0 UV-I 44 W/m 13,1 C 16,1 C 27,4 km/h (4 Bft)
08.06.2023 20:51 19,9 C 18,9 C 63 % 1015,1 hPa 0,0 l/m 19,1 km/h (3 Bft) O 81 0 min 0,0 UV-I 41 W/m 12,6 C 16,2 C 27,4 km/h (4 Bft)
08.06.2023 20:54 19,7 C 18,3 C 64 % 1015,1 hPa 0,0 l/m 17,8 km/h (3 Bft) O 97 0 min 0,0 UV-I 40 W/m 12,7 C 16,3 C 29,0 km/h (5 Bft)
08.06.2023 20:57 19,6 C 18,3 C 64 % 1014,9 hPa 0,0 l/m 10,9 km/h (2 Bft) O 91 0 min 0,0 UV-I 47 W/m 12,6 C 17,9 C 17,7 km/h (3 Bft)
08.06.2023 21:00 19,6 C 18,3 C 64 % 1015,0 hPa 0,0 l/m 11,1 km/h (2 Bft) O 101 3 min 0,0 UV-I 46 W/m 12,6 C 17,8 C 17,7 km/h (3 Bft)
08.06.2023 21:03 19,4 C 18,3 C 64 % 1015,0 hPa 0,0 l/m 12,0 km/h (2 Bft) SO 144 3 min 0,0 UV-I 44 W/m 12,4 C 17,3 C 17,7 km/h (3 Bft)
08.06.2023 21:06 19,3 C 18,3 C 64 % 1015,0 hPa 0,0 l/m 16,7 km/h (3 Bft) O 98 3 min 0,0 UV-I 46 W/m 12,3 C 16,0 C 27,4 km/h (4 Bft)
08.06.2023 21:09 19,1 C 17,8 C 64 % 1014,9 hPa 0,0 l/m 12,0 km/h (2 Bft) O-NO 78 3 min 0,0 UV-I 47 W/m 12,1 C 17,0 C 25,7 km/h (4 Bft)
08.06.2023 21:12 18,9 C 17,8 C 65 % 1014,9 hPa 0,0 l/m 9,3 km/h (2 Bft) O-NO 63 3 min 0,0 UV-I 46 W/m 12,2 C 17,7 C 16,1 km/h (3 Bft)
08.06.2023 21:15 18,8 C 17,8 C 65 % 1014,9 hPa 0,0 l/m 8,7 km/h (2 Bft) O-NO 57 3 min 0,0 UV-I 43 W/m 12,1 C 17,8 C 14,5 km/h (3 Bft)
08.06.2023 21:18 18,7 C 17,2 C 66 % 1014,8 hPa 0,0 l/m 8,0 km/h (2 Bft) NO 53 3 min 0,0 UV-I 40 W/m 12,2 C 18,0 C 14,5 km/h (3 Bft)
08.06.2023 21:21 18,6 C 17,2 C 66 % 1014,9 hPa 0,0 l/m 4,7 km/h (1 Bft) O-NO 60 3 min 0,0 UV-I 37 W/m 12,1 C 18,6 C 8,0 km/h (2 Bft)
08.06.2023 21:24 18,3 C 16,7 C 68 % 1014,8 hPa 0,0 l/m 4,2 km/h (1 Bft) NO 47 3 min 0,0 UV-I 33 W/m 12,3 C 18,3 C 6,4 km/h (2 Bft)
08.06.2023 21:27 18,0 C 16,1 C 69 % 1014,8 hPa 0,0 l/m 5,7 km/h (1 Bft) N-NO 28 0 min 0,0 UV-I 19 W/m 12,2 C 18,0 C 8,0 km/h (2 Bft)
08.06.2023 21:30 17,8 C 16,1 C 70 % 1014,8 hPa 0,0 l/m 6,7 km/h (2 Bft) NO 41 0 min 0,0 UV-I 13 W/m 12,3 C 17,7 C 9,7 km/h (2 Bft)
08.06.2023 21:33 17,6 C 16,1 C 70 % 1014,8 hPa 0,0 l/m 4,1 km/h (1 Bft) NO 53 0 min 0,0 UV-I 6 W/m 12,1 C 17,6 C 8,0 km/h (2 Bft)
08.06.2023 21:36 17,4 C 15,0 C 71 % 1014,8 hPa 0,0 l/m 4,0 km/h (1 Bft) NO 53 0 min 0,0 UV-I 0 W/m 12,1 C 17,4 C 6,4 km/h (2 Bft)
08.06.2023 21:39 17,2 C 15,0 C 71 % 1014,9 hPa 0,0 l/m 4,6 km/h (1 Bft) NO 53 0 min 0,0 UV-I 17 W/m 11,9 C 17,2 C 6,4 km/h (2 Bft)
08.06.2023 21:42 17,1 C 14,4 C 72 % 1015,0 hPa 0,0 l/m 3,8 km/h (1 Bft) NO 53 0 min 0,0 UV-I 14 W/m 12,0 C 17,1 C 4,8 km/h (1 Bft)
08.06.2023 21:45 16,9 C 14,4 C 73 % 1014,9 hPa 0,0 l/m 5,4 km/h (1 Bft) NO 36 0 min 0,0 UV-I 11 W/m 12,0 C 16,9 C 8,0 km/h (2 Bft)
08.06.2023 21:48 16,8 C 14,4 C 73 % 1015,0 hPa 0,0 l/m 7,3 km/h (2 Bft) N-NO 28 0 min 0,0 UV-I 8 W/m 11,9 C 16,3 C 9,7 km/h (2 Bft)
08.06.2023 21:51 16,7 C 14,4 C 73 % 1015,1 hPa 0,0 l/m 6,8 km/h (2 Bft) NO 42 0 min 0,0 UV-I 6 W/m 11,8 C 16,5 C 8,0 km/h (2 Bft)
08.06.2023 21:54 16,6 C 13,9 C 74 % 1015,0 hPa 0,0 l/m 6,3 km/h (2 Bft) NO 34 0 min 0,0 UV-I 1 W/m 11,9 C 16,6 C 8,0 km/h (2 Bft)
08.06.2023 21:57 16,4 C 13,9 C 74 % 1015,1 hPa 0,0 l/m 5,6 km/h (1 Bft) NO 46 0 min 0,0 UV-I 0 W/m 11,8 C 16,4 C 8,0 km/h (2 Bft)
08.06.2023 22:00 16,3 C 13,3 C 74 % 1015,1 hPa 0,0 l/m 4,5 km/h (1 Bft) NO 46 0 min 0,0 UV-I 0 W/m 11,7 C 16,3 C 6,4 km/h (2 Bft)
08.06.2023 22:03 16,1 C 13,3 C 75 % 1015,2 hPa 0,0 l/m 5,2 km/h (1 Bft) NO 42 0 min 0,0 UV-I 0 W/m 11,7 C 16,1 C 6,4 km/h (2 Bft)
08.06.2023 22:06 16,0 C 13,3 C 75 % 1015,2 hPa 0,0 l/m 4,8 km/h (1 Bft) NO 40 0 min 0,0 UV-I 0 W/m 11,6 C 16,0 C 6,4 km/h (2 Bft)
08.06.2023 22:09 15,9 C 13,3 C 76 % 1015,2 hPa 0,0 l/m 5,8 km/h (2 Bft) N-NO 28 0 min 0,0 UV-I 0 W/m 11,7 C 15,9 C 8,0 km/h (2 Bft)
08.06.2023 22:12 15,8 C 13,3 C 76 % 1015,2 hPa 0,0 l/m 6,6 km/h (2 Bft) N-NO 28 0 min 0,0 UV-I 0 W/m 11,6 C 15,7 C 9,7 km/h (2 Bft)
08.06.2023 22:15 15,7 C 13,3 C 76 % 1015,4 hPa 0,0 l/m 6,9 km/h (2 Bft) N-NO 23 0 min 0,0 UV-I 0 W/m 11,5 C 15,4 C 9,7 km/h (2 Bft)
08.06.2023 22:18 15,6 C 13,3 C 76 % 1015,3 hPa 0,0 l/m 6,9 km/h (2 Bft) N-NO 22 0 min 0,0 UV-I 0 W/m 11,4 C 15,3 C 11,3 km/h (2 Bft)
08.06.2023 22:21 15,5 C 12,8 C 76 % 1015,3 hPa 0,0 l/m 4,5 km/h (1 Bft) N-NO 22 0 min 0,0 UV-I 0 W/m 11,3 C 15,5 C 6,4 km/h (2 Bft)
08.06.2023 22:24 15,5 C 12,8 C 77 % 1015,3 hPa 0,0 l/m 2,7 km/h (1 Bft) N-NO 22 0 min 0,0 UV-I 0 W/m 11,5 C 15,5 C 6,4 km/h (2 Bft)
08.06.2023 22:27 15,4 C 12,8 C 77 % 1015,4 hPa 0,0 l/m 0,1 km/h (0 Bft) N-NO 22 0 min 0,0 UV-I 0 W/m 11,4 C 15,4 C 1,6 km/h (1 Bft)
08.06.2023 22:30 15,3 C 12,8 C 77 % 1015,5 hPa 0,0 l/m 2,2 km/h (1 Bft) N-NO 22 0 min 0,0 UV-I 0 W/m 11,3 C 15,3 C 4,8 km/h (1 Bft)
08.06.2023 22:33 15,2 C 12,2 C 77 % 1015,4 hPa 0,0 l/m 1,5 km/h (1 Bft) N-NO 22 0 min 0,0 UV-I 0 W/m 11,2 C 15,2 C 4,8 km/h (1 Bft)
08.06.2023 22:36 15,1 C 12,2 C 77 % 1015,6 hPa 0,0 l/m 1,1 km/h (1 Bft) N-NO 22 0 min 0,0 UV-I 0 W/m 11,1 C 15,1 C 3,2 km/h (1 Bft)
08.06.2023 22:39 15,0 C 12,2 C 77 % 1015,4 hPa 0,0 l/m 0,2 km/h (0 Bft) N-NO 22 0 min 0,0 UV-I 0 W/m 11,0 C 15,0 C 1,6 km/h (1 Bft)
08.06.2023 22:42 14,9 C 12,2 C 78 % 1015,5 hPa 0,0 l/m 1,4 km/h (1 Bft) N-NO 22 0 min 0,0 UV-I 0 W/m 11,1 C 14,9 C 3,2 km/h (1 Bft)
08.06.2023 22:45 14,8 C 11,7 C 77 % 1015,4 hPa 0,0 l/m 2,6 km/h (1 Bft) N-NO 22 0 min 0,0 UV-I 0 W/m 10,8 C 14,8 C 3,2 km/h (1 Bft)
08.06.2023 22:48 14,8 C 11,7 C 78 % 1015,4 hPa 0,0 l/m 0,6 km/h (0 Bft) N-NO 22 0 min 0,0 UV-I 0 W/m 11,0 C 14,8 C 3,2 km/h (1 Bft)
08.06.2023 22:51 14,6 C 11,7 C 78 % 1015,5 hPa 0,0 l/m 0,0 km/h (0 Bft) N-NO 22 0 min 0,0 UV-I 0 W/m 10,8 C 14,6 C 1,6 km/h (1 Bft)
08.06.2023 22:54 14,3 C 11,1 C 79 % 1015,5 hPa 0,0 l/m 1,2 km/h (1 Bft) N-NO 22 0 min 0,0 UV-I 0 W/m 10,7 C 14,3 C 1,6 km/h (1 Bft)
08.06.2023 22:57 14,2 C 11,1 C 80 % 1015,6 hPa 0,0 l/m 1,5 km/h (1 Bft) N-NO 22 0 min 0,0 UV-I 0 W/m 10,8 C 14,2 C 3,2 km/h (1 Bft)
08.06.2023 23:00 14,1 C 10,6 C 80 % 1015,6 hPa 0,0 l/m 2,2 km/h (1 Bft) N-NO 22 0 min 0,0 UV-I 0 W/m 10,7 C 14,1 C 3,2 km/h (1 Bft)
08.06.2023 23:03 14,0 C 10,6 C 80 % 1015,6 hPa 0,0 l/m 0,8 km/h (0 Bft) N-NO 22 0 min 0,0 UV-I 0 W/m 10,6 C 14,0 C 1,6 km/h (1 Bft)
08.06.2023 23:06 13,7 C 10,6 C 81 % 1015,5 hPa 0,0 l/m 0,1 km/h (0 Bft) N-NO 22 0 min 0,0 UV-I 0 W/m 10,5 C 13,7 C 1,6 km/h (1 Bft)
08.06.2023 23:09 13,6 C 10,6 C 82 % 1015,6 hPa 0,0 l/m 0,0 km/h (0 Bft) N-NO 22 0 min 0,0 UV-I 0 W/m 10,6 C 13,6 C 1,6 km/h (1 Bft)
08.06.2023 23:12 13,7 C 10,6 C 82 % 1015,6 hPa 0,0 l/m 1,5 km/h (1 Bft) N-NO 22 0 min 0,0 UV-I 0 W/m 10,7 C 13,7 C 3,2 km/h (1 Bft)
08.06.2023 23:15 13,6 C 10,6 C 82 % 1015,6 hPa 0,0 l/m 2,6 km/h (1 Bft) N-NO 22 0 min 0,0 UV-I 0 W/m 10,6 C 13,6 C 4,8 km/h (1 Bft)
08.06.2023 23:18 13,6 C 10,6 C 83 % 1015,6 hPa 0,0 l/m 2,4 km/h (1 Bft) N-NO 22 0 min 0,0 UV-I 0 W/m 10,8 C 13,6 C 3,2 km/h (1 Bft)
08.06.2023 23:21 13,4 C 10,6 C 83 % 1015,6 hPa 0,0 l/m 2,8 km/h (1 Bft) N-NO 22 0 min 0,0 UV-I 0 W/m 10,6 C 13,4 C 4,8 km/h (1 Bft)
08.06.2023 23:22 13,4 C 10,6 C 83 % 1015,6 hPa 0,0 l/m 1,6 km/h (1 Bft) N-NO 22 0 min 0,0 UV-I 0 W/m 10,6 C 13,4 C 3,2 km/h (1 Bft)
08.06.2023 23:24 13,4 C 10,6 C 83 % 1015,5 hPa 0,0 l/m 0,9 km/h (0 Bft) N-NO 22 0 min 0,0 UV-I 0 W/m 10,6 C 13,4 C 1,6 km/h (1 Bft)
08.06.2023 23:27 13,4 C 10,6 C 83 % 1015,7 hPa 0,0 l/m 1,8 km/h (1 Bft) N-NO 22 0 min 0,0 UV-I 0 W/m 10,6 C 13,4 C 3,2 km/h (1 Bft)
08.06.2023 23:30 13,4 C 10,6 C 83 % 1015,7 hPa 0,0 l/m 0,9 km/h (0 Bft) N-NO 22 0 min 0,0 UV-I 0 W/m 10,6 C 13,4 C 3,2 km/h (1 Bft)
08.06.2023 23:33 13,3 C 10,6 C 83 % 1015,7 hPa 0,0 l/m 1,6 km/h (1 Bft) N-NO 22 0 min 0,0 UV-I 0 W/m 10,5 C 13,3 C 3,2 km/h (1 Bft)
08.06.2023 23:36 12,9 C 10,0 C 83 % 1015,7 hPa 0,0 l/m 0,4 km/h (0 Bft) N-NO 22 0 min 0,0 UV-I 0 W/m 10,1 C 12,9 C 1,6 km/h (1 Bft)
08.06.2023 23:39 12,8 C 10,0 C 84 % 1015,8 hPa 0,0 l/m 0,2 km/h (0 Bft) N-NO 22 0 min 0,0 UV-I 0 W/m 10,2 C 12,8 C 1,6 km/h (1 Bft)
08.06.2023 23:42 12,8 C 10,0 C 84 % 1015,7 hPa 0,0 l/m 0,9 km/h (0 Bft) N-NO 22 0 min 0,0 UV-I 0 W/m 10,2 C 12,8 C 1,6 km/h (1 Bft)
08.06.2023 23:45 12,8 C 10,0 C 85 % 1015,7 hPa 0,0 l/m 0,3 km/h (0 Bft) N-NO 22 0 min 0,0 UV-I 0 W/m 10,3 C 12,8 C 1,6 km/h (1 Bft)
08.06.2023 23:48 12,7 C 10,0 C 85 % 1015,8 hPa 0,0 l/m 1,8 km/h (1 Bft) N-NO 22 0 min 0,0 UV-I 0 W/m 10,2 C 12,7 C 3,2 km/h (1 Bft)
08.06.2023 23:51 12,5 C 10,0 C 84 % 1015,8 hPa 0,0 l/m 0,1 km/h (0 Bft) N-NO 22 0 min 0,0 UV-I 0 W/m 9,9 C 12,5 C 1,6 km/h (1 Bft)
08.06.2023 23:54 12,2 C 9,4 C 85 % 1015,9 hPa 0,0 l/m 1,8 km/h (1 Bft) N-NO 22 0 min 0,0 UV-I 0 W/m 9,8 C 12,2 C 3,2 km/h (1 Bft)
08.06.2023 23:57 12,2 C 10,0 C 86 % 1015,9 hPa 0,0 l/m 1,3 km/h (1 Bft) N-NO 22 0 min 0,0 UV-I 0 W/m 9,9 C 12,2 C 3,2 km/h (1 Bft)
08.06.2023 23:58 12,3 C 10,0 C 86 % 1015,9 hPa 0,0 l/m 0,0 km/h (0 Bft) N-NO 22 0 min 0,0 UV-I 0 W/m 10,0 C 12,3 C 1,6 km/h (1 Bft)
08.06.2023 23:59 12,3 C 10,0 C 86 % 1015,9 hPa 0,0 l/m 1,6 km/h (1 Bft) N-NO 22 0 min 0,0 UV-I 0 W/m 10,0 C 12,3 C 1,6 km/h (1 Bft)
_ Min-Zeit 03:42 02:51 15:57 18:24 - 00:57 - - - - - 03:42 03:42 00:57
Minimum _ 10,1 C 8,3 C 54 % 1014,2 hPa - 0,0 km/h (0 Bft) - - - - - 8,9 C 10,1 C 0,0 km/h (0 Bft)
_ Max-Zeit 16:30 16:30 05:33 00:00 13:57 20:45 - - 18:52 13:42 14:12 14:06 15:39 20:45
Maximum _ 24,3 C 35,6 C 94 % 1019,2 hPa 0,2 l/m 21,5 km/h
O (4 Bft)
- - 4 min 6,4 UV-I 1025 W/m 16,1 C 23,7 C 38,6 km/h
O (5 Bft)
Durchschnitt _ 17,2 C 18,3 C 76 % 1016,4 hPa #0,6 l/m 6,9 km/h (2 Bft) N-NO - #11:01 h 2,9 UV-I 381 W/m 12,7 C 16,5 C 11,2 km/h (2 Bft)